Time,TemperatureF,DewpointF,PressureIn,WindDirection,WindDirectionDegrees,WindSpeedMPH,WindSpeedGustMPH,Humidity,HourlyPrecipIn,Conditions,Clouds,dailyrainin,SoftwareType,DateUTC
2013-07-02 00:01:00,64.7,57.0,29.18,East,94,8.0,18.0,76,0.00,,,0.00,WUHU216DAVISVP2,2013-07-02 04:01:00,
2013-07-02 00:06:00,64.7,57.1,29.18,ENE,71,6.0,18.0,76,0.00,,,0.00,WUHU216DAVISVP2,2013-07-02 04:06:00,
2013-07-02 00:11:00,64.7,57.1,29.18,East,81,11.0,18.0,76,0.00,,,0.00,WUHU216DAVISVP2,2013-07-02 04:11:00,
2013-07-02 00:16:00,64.6,56.9,29.18,ENE,74,9.0,18.0,76,0.00,,,0.00,WUHU216DAVISVP2,2013-07-02 04:16:00,
2013-07-02 00:21:00,64.5,57.1,29.18,ENE,59,10.0,18.0,77,0.00,,,0.00,WUHU216DAVISVP2,2013-07-02 04:21:00,
2013-07-02 00:22:00,64.5,57.1,29.18,ENE,65,7.0,18.0,77,0.00,,,0.00,WUHU216DAVISVP2,2013-07-02 04:22:00,
2013-07-02 00:27:00,64.5,57.1,29.18,East,85,8.0,15.0,77,0.00,,,0.00,WUHU216DAVISVP2,2013-07-02 04:27:00,
2013-07-02 00:32:00,64.4,57.1,29.18,East,82,9.0,16.0,77,0.00,,,0.00,WUHU216DAVISVP2,2013-07-02 04:32:00,
2013-07-02 00:37:00,64.4,57.4,29.18,ENE,73,7.0,16.0,78,0.00,,,0.00,WUHU216DAVISVP2,2013-07-02 04:37:00,
2013-07-02 00:38:00,64.4,57.4,29.18,East,100,10.0,16.0,78,0.00,,,0.00,WUHU216DAVISVP2,2013-07-02 04:38:00,
2013-07-02 00:42:00,64.4,57.4,29.18,East,85,12.0,16.0,78,0.00,,,0.00,WUHU216DAVISVP2,2013-07-02 04:42:00,
2013-07-02 00:43:00,64.4,57.4,29.18,East,95,8.0,16.0,78,0.00,,,0.00,WUHU216DAVISVP2,2013-07-02 04:43:00,
2013-07-02 00:47:00,64.4,57.4,29.18,East,80,7.0,16.0,78,0.00,,,0.00,WUHU216DAVISVP2,2013-07-02 04:47:00,
2013-07-02 00:48:00,64.4,57.4,29.18,ENE,74,7.0,16.0,78,0.00,,,0.00,WUHU216DAVISVP2,2013-07-02 04:48:00,
2013-07-02 00:52:00,64.3,57.4,29.18,East,101,8.0,14.0,78,0.00,,,0.00,WUHU216DAVISVP2,2013-07-02 04:52:00,
2013-07-02 00:53:00,64.3,57.4,29.18,ENE,61,9.0,14.0,78,0.00,,,0.00,WUHU216DAVISVP2,2013-07-02 04:53:00,
2013-07-02 00:57:00,64.3,57.4,29.18,East,80,6.0,14.0,78,0.00,,,0.00,WUHU216DAVISVP2,2013-07-02 04:57:00,
2013-07-02 00:58:00,64.3,57.4,29.18,ENE,76,7.0,14.0,78,0.00,,,0.00,WUHU216DAVISVP2,2013-07-02 04:58:00,
2013-07-02 01:02:00,64.2,57.5,29.18,ENE,70,11.0,13.0,79,0.00,,,0.00,WUHU216DAVISVP2,2013-07-02 05:02:00,
2013-07-02 01:03:00,64.2,57.5,29.18,East,80,8.0,13.0,79,0.00,,,0.00,WUHU216DAVISVP2,2013-07-02 05:03:00,
2013-07-02 01:07:00,64.2,57.5,29.18,East,83,6.0,12.0,79,0.00,,,0.00,WUHU216DAVISVP2,2013-07-02 05:07:00,
2013-07-02 01:08:00,64.2,57.5,29.18,East,83,6.0,12.0,79,0.00,,,0.00,WUHU216DAVISVP2,2013-07-02 05:08:00,
2013-07-02 01:13:00,64.1,57.5,29.17,ENE,73,6.0,12.0,79,0.00,,,0.00,WUHU216DAVISVP2,2013-07-02 05:13:00,
2013-07-02 01:18:00,64.1,57.5,29.17,East,81,5.0,12.0,79,0.00,,,0.00,WUHU216DAVISVP2,2013-07-02 05:18:00,
2013-07-02 01:23:00,64.0,57.8,29.18,ENE,73,9.0,11.0,80,0.00,,,0.00,WUHU216DAVISVP2,2013-07-02 05:23:00,
2013-07-02 01:24:00,64.0,57.8,29.18,East,80,10.0,14.0,80,0.00,,,0.00,WUHU216DAVISVP2,2013-07-02 05:24:00,
2013-07-02 01:28:00,64.0,57.7,29.17,ENE,68,5.0,16.0,80,0.00,,,0.00,WUHU216DAVISVP2,2013-07-02 05:28:00,
2013-07-02 01:29:00,64.0,57.7,29.17,NE,46,11.0,16.0,80,0.00,,,0.00,WUHU216DAVISVP2,2013-07-02 05:29:00,
2013-07-02 01:33:00,64.0,57.8,29.17,NE,54,6.0,16.0,80,0.00,,,0.00,WUHU216DAVISVP2,2013-07-02 05:33:00,
2013-07-02 01:34:00,64.0,57.8,29.17,East,97,5.0,16.0,80,0.00,,,0.00,WUHU216DAVISVP2,2013-07-02 05:34:00,
2013-07-02 01:38:00,64.0,57.7,29.17,ENE,66,9.0,16.0,80,0.00,,,0.00,WUHU216DAVISVP2,2013-07-02 05:38:00,
2013-07-02 01:39:00,63.9,57.6,29.17,East,91,8.0,16.0,80,0.00,,,0.00,WUHU216DAVISVP2,2013-07-02 05:39:00,
2013-07-02 01:40:00,64.0,57.7,29.17,ENE,73,6.0,16.0,80,0.00,,,0.00,WUHU216DAVISVP2,2013-07-02 05:40:00,
2013-07-02 01:43:00,63.9,57.6,29.17,East,88,8.0,14.0,80,0.00,,,0.00,WUHU216DAVISVP2,2013-07-02 05:43:00,
2013-07-02 01:44:00,63.9,57.6,29.17,ESE,102,8.0,14.0,80,0.00,,,0.00,WUHU216DAVISVP2,2013-07-02 05:44:00,
2013-07-02 01:45:00,63.9,57.6,29.17,ENE,57,5.0,14.0,80,0.00,,,0.00,WUHU216DAVISVP2,2013-07-02 05:45:00,
2013-07-02 01:49:00,63.9,57.7,29.17,ENE,58,4.0,12.0,80,0.00,,,0.00,WUHU216DAVISVP2,2013-07-02 05:49:00,
2013-07-02 01:50:00,63.9,57.7,29.17,ENE,58,11.0,12.0,80,0.00,,,0.00,WUHU216DAVISVP2,2013-07-02 05:50:00,
2013-07-02 01:54:00,63.8,57.5,29.17,East,97,8.0,12.0,80,0.00,,,0.00,WUHU216DAVISVP2,2013-07-02 05:54:00,
2013-07-02 01:55:00,63.8,57.5,29.17,ENE,65,7.0,12.0,80,0.00,,,0.00,WUHU216DAVISVP2,2013-07-02 05:55:00,
2013-07-02 01:59:00,63.8,57.5,29.17,NE,54,8.0,12.0,80,0.00,,,0.00,WUHU216DAVISVP2,2013-07-02 05:59:00,
2013-07-02 02:00:00,63.8,57.5,29.17,NE,52,9.0,12.0,80,0.00,,,0.00,WUHU216DAVISVP2,2013-07-02 06:00:00,
2013-07-02 02:01:00,63.8,57.5,29.17,ESE,102,8.0,12.0,80,0.00,,,0.00,WUHU216DAVISVP2,2013-07-02 06:01:00,
2013-07-02 02:04:00,63.8,57.5,29.17,ENE,62,10.0,13.0,80,0.00,,,0.00,WUHU216DAVISVP2,2013-07-02 06:04:00,
2013-07-02 02:05:00,63.8,57.2,29.17,NE,43,10.0,14.0,79,0.00,,,0.00,WUHU216DAVISVP2,2013-07-02 06:05:00,
2013-07-02 02:09:00,63.8,57.2,29.17,East,83,4.0,14.0,79,0.00,,,0.00,WUHU216DAVISVP2,2013-07-02 06:09:00,
2013-07-02 02:10:00,63.8,57.2,29.17,ENE,61,7.0,14.0,79,0.00,,,0.00,WUHU216DAVISVP2,2013-07-02 06:10:00,
2013-07-02 02:11:00,63.8,57.2,29.17,ENE,64,6.0,14.0,79,0.00,,,0.00,WUHU216DAVISVP2,2013-07-02 06:11:00,
2013-07-02 02:14:00,63.7,57.1,29.17,East,80,6.0,14.0,79,0.00,,,0.00,WUHU216DAVISVP2,2013-07-02 06:14:00,
2013-07-02 02:15:00,63.8,57.6,29.17,ENE,75,6.0,14.0,80,0.00,,,0.00,WUHU216DAVISVP2,2013-07-02 06:15:00,
2013-07-02 02:16:00,63.7,57.1,29.17,ENE,72,6.0,14.0,79,0.00,,,0.00,WUHU216DAVISVP2,2013-07-02 06:16:00,
2013-07-02 02:19:00,63.7,57.4,29.17,ENE,58,4.0,14.0,80,0.00,,,0.00,WUHU216DAVISVP2,2013-07-02 06:19:00,
2013-07-02 02:20:00,63.7,57.4,29.17,East,95,4.0,14.0,80,0.00,,,0.00,WUHU216DAVISVP2,2013-07-02 06:20:00,
2013-07-02 02:21:00,63.6,57.3,29.17,NE,55,2.0,14.0,80,0.00,,,0.00,WUHU216DAVISVP2,2013-07-02 06:21:00,
2013-07-02 02:24:00,63.6,57.3,29.17,ENE,69,5.0,13.0,80,0.00,,,0.00,WUHU216DAVISVP2,2013-07-02 06:24:00,
2013-07-02 02:25:00,63.6,57.3,29.17,ENE,70,2.0,13.0,80,0.00,,,0.00,WUHU216DAVISVP2,2013-07-02 06:25:00,
2013-07-02 02:26:00,63.6,57.3,29.17,NE,53,7.0,13.0,80,0.00,,,0.00,WUHU216DAVISVP2,2013-07-02 06:26:00,
2013-07-02 02:30:00,63.6,57.3,29.17,ENE,66,7.0,13.0,80,0.00,,,0.00,WUHU216DAVISVP2,2013-07-02 06:30:00,
2013-07-02 02:31:00,63.6,57.3,29.17,ENE,60,7.0,13.0,80,0.00,,,0.00,WUHU216DAVISVP2,2013-07-02 06:31:00,
2013-07-02 02:35:00,63.5,57.3,29.17,ENE,66,6.0,13.0,80,0.00,,,0.00,WUHU216DAVISVP2,2013-07-02 06:35:00,
2013-07-02 02:36:00,63.5,56.9,29.17,ENE,62,8.0,13.0,79,0.00,,,0.00,WUHU216DAVISVP2,2013-07-02 06:36:00,
2013-07-02 02:37:00,63.5,57.3,29.17,NE,53,6.0,13.0,80,0.00,,,0.00,WUHU216DAVISVP2,2013-07-02 06:37:00,
2013-07-02 02:40:00,63.5,57.3,29.17,ENE,75,10.0,13.0,80,0.00,,,0.00,WUHU216DAVISVP2,2013-07-02 06:40:00,
2013-07-02 02:41:00,63.5,56.9,29.17,East,88,9.0,13.0,79,0.00,,,0.00,WUHU216DAVISVP2,2013-07-02 06:41:00,
2013-07-02 02:43:00,63.5,56.9,29.17,ENE,61,6.0,13.0,79,0.00,,,0.00,WUHU216DAVISVP2,2013-07-02 06:43:00,
2013-07-02 02:45:00,63.5,57.2,29.17,ENE,70,7.0,13.0,80,0.00,,,0.00,WUHU216DAVISVP2,2013-07-02 06:45:00,
2013-07-02 02:46:00,63.5,57.2,29.17,East,87,4.0,13.0,80,0.00,,,0.00,WUHU216DAVISVP2,2013-07-02 06:46:00,
2013-07-02 02:48:00,63.4,57.2,29.17,NE,55,10.0,13.0,80,0.00,,,0.00,WUHU216DAVISVP2,2013-07-02 06:48:00,
2013-07-02 02:50:00,63.3,57.1,29.17,NE,49,9.0,13.0,80,0.00,,,0.00,WUHU216DAVISVP2,2013-07-02 06:50:00,
2013-07-02 02:51:00,63.3,57.1,29.17,ENE,57,9.0,13.0,80,0.00,,,0.00,WUHU216DAVISVP2,2013-07-02 06:51:00,
2013-07-02 02:53:00,63.2,56.9,29.17,ENE,74,7.0,13.0,80,0.00,,,0.00,WUHU216DAVISVP2,2013-07-02 06:53:00,
2013-07-02 02:55:00,63.2,57.3,29.17,ENE,75,2.0,13.0,81,0.00,,,0.00,WUHU216DAVISVP2,2013-07-02 06:55:00,
2013-07-02 02:56:00,63.2,57.3,29.17,ENE,64,6.0,13.0,81,0.00,,,0.00,WUHU216DAVISVP2,2013-07-02 06:56:00,
2013-07-02 02:58:00,63.1,57.2,29.17,ENE,70,6.0,12.0,81,0.00,,,0.00,WUHU216DAVISVP2,2013-07-02 06:58:00,
2013-07-02 03:00:00,63.1,57.2,29.17,NE,54,5.0,13.0,81,0.00,,,0.00,WUHU216DAVISVP2,2013-07-02 07:00:00,
2013-07-02 03:01:00,63.1,57.2,29.17,East,80,6.0,13.0,81,0.00,,,0.00,WUHU216DAVISVP2,2013-07-02 07:01:00,
2013-07-02 03:02:00,63.1,57.2,29.17,ENE,70,6.0,13.0,81,0.00,,,0.00,WUHU216DAVISVP2,2013-07-02 07:02:00,
2013-07-02 03:04:00,63.1,57.2,29.17,ENE,67,7.0,13.0,81,0.00,,,0.00,WUHU216DAVISVP2,2013-07-02 07:04:00,
2013-07-02 03:06:00,63.0,57.1,29.17,ENE,69,7.0,13.0,81,0.00,,,0.00,WUHU216DAVISVP2,2013-07-02 07:06:00,
2013-07-02 03:07:00,63.0,57.1,29.16,East,93,5.0,13.0,81,0.00,,,0.00,WUHU216DAVISVP2,2013-07-02 07:07:00,
2013-07-02 03:10:00,63.0,57.1,29.16,ENE,68,8.0,13.0,81,0.00,,,0.00,WUHU216DAVISVP2,2013-07-02 07:10:00,
2013-07-02 03:11:00,63.0,57.1,29.16,East,86,9.0,13.0,81,0.00,,,0.00,WUHU216DAVISVP2,2013-07-02 07:11:00,
2013-07-02 03:12:00,62.9,57.0,29.16,East,88,6.0,13.0,81,0.00,,,0.00,WUHU216DAVISVP2,2013-07-02 07:12:00,
2013-07-02 03:15:00,62.8,56.9,29.16,East,98,9.0,13.0,81,0.00,,,0.00,WUHU216DAVISVP2,2013-07-02 07:15:00,
2013-07-02 03:16:00,62.8,57.2,29.17,East,93,5.0,13.0,82,0.00,,,0.00,WUHU216DAVISVP2,2013-07-02 07:16:00,
2013-07-02 03:17:00,62.7,57.1,29.16,NE,55,9.0,13.0,82,0.00,,,0.00,WUHU216DAVISVP2,2013-07-02 07:17:00,
2013-07-02 03:18:00,62.7,57.1,29.17,East,88,11.0,13.0,82,0.00,,,0.00,WUHU216DAVISVP2,2013-07-02 07:18:00,
2013-07-02 03:20:00,62.5,57.3,29.16,East,96,6.0,12.0,83,0.00,,,0.00,WUHU216DAVISVP2,2013-07-02 07:20:00,
2013-07-02 03:21:00,62.4,57.2,29.16,East,89,9.0,12.0,83,0.00,,,0.00,WUHU216DAVISVP2,2013-07-02 07:21:00,
2013-07-02 03:22:00,62.3,57.4,29.16,ENE,66,6.0,12.0,84,0.00,,,0.00,WUHU216DAVISVP2,2013-07-02 07:22:00,
2013-07-02 03:23:00,62.2,57.3,29.16,NE,54,7.0,12.0,84,0.00,,,0.00,WUHU216DAVISVP2,2013-07-02 07:23:00,
2013-07-02 03:25:00,62.0,57.4,29.17,ENE,66,8.0,12.0,85,0.00,,,0.00,WUHU216DAVISVP2,2013-07-02 07:25:00,
2013-07-02 03:26:00,61.9,57.4,29.17,ENE,64,7.0,12.0,85,0.00,,,0.00,WUHU216DAVISVP2,2013-07-02 07:26:00,
2013-07-02 03:27:00,61.8,57.6,29.17,NE,51,6.0,11.0,86,0.00,,,0.00,WUHU216DAVISVP2,2013-07-02 07:27:00,
2013-07-02 03:28:00,61.7,57.5,29.17,ENE,76,4.0,11.0,86,0.00,,,0.00,WUHU216DAVISVP2,2013-07-02 07:28:00,
2013-07-02 03:30:00,61.5,57.3,29.16,ENE,65,5.0,11.0,86,0.00,,,0.00,WUHU216DAVISVP2,2013-07-02 07:30:00,
2013-07-02 03:32:00,61.4,57.5,29.16,ENE,64,4.0,11.0,87,0.00,,,0.00,WUHU216DAVISVP2,2013-07-02 07:32:00,
2013-07-02 03:33:00,61.4,57.5,29.16,ENE,64,4.0,11.0,87,0.00,,,0.00,WUHU216DAVISVP2,2013-07-02 07:33:00,
2013-07-02 03:35:00,61.2,57.3,29.16,ENE,64,5.0,11.0,87,0.00,,,0.00,WUHU216DAVISVP2,2013-07-02 07:35:00,
2013-07-02 03:37:00,61.2,57.6,29.16,ENE,64,1.0,11.0,88,0.00,,,0.00,WUHU216DAVISVP2,2013-07-02 07:37:00,
2013-07-02 03:38:00,61.1,57.5,29.16,ENE,64,4.0,11.0,88,0.00,,,0.00,WUHU216DAVISVP2,2013-07-02 07:38:00,
2013-07-02 03:39:00,61.1,57.5,29.16,ENE,64,4.0,11.0,88,0.00,,,0.00,WUHU216DAVISVP2,2013-07-02 07:39:00,
2013-07-02 03:40:00,61.0,57.4,29.16,East,89,6.0,11.0,88,0.00,,,0.00,WUHU216DAVISVP2,2013-07-02 07:40:00,
2013-07-02 03:42:00,60.9,57.6,29.16,ENE,78,3.0,10.0,89,0.00,,,0.00,WUHU216DAVISVP2,2013-07-02 07:42:00,
2013-07-02 03:43:00,60.9,57.6,29.16,ENE,73,5.0,10.0,89,0.00,,,0.00,WUHU216DAVISVP2,2013-07-02 07:43:00,
2013-07-02 03:44:00,60.9,57.6,29.16,ENE,75,1.0,10.0,89,0.00,,,0.00,WUHU216DAVISVP2,2013-07-02 07:44:00,
2013-07-02 03:45:00,60.8,57.5,29.16,East,89,1.0,8.0,89,0.00,,,0.00,WUHU216DAVISVP2,2013-07-02 07:45:00,
2013-07-02 03:47:00,60.7,57.4,29.16,East,82,2.0,8.0,89,0.00,,,0.00,WUHU216DAVISVP2,2013-07-02 07:47:00,
2013-07-02 03:48:00,60.7,57.4,29.16,East,82,4.0,8.0,89,0.00,,,0.00,WUHU216DAVISVP2,2013-07-02 07:48:00,
2013-07-02 03:49:00,60.7,57.7,29.16,East,82,1.0,8.0,90,0.00,,,0.00,WUHU216DAVISVP2,2013-07-02 07:49:00,
2013-07-02 03:50:00,60.6,57.7,29.16,East,83,1.0,8.0,90,0.00,,,0.00,WUHU216DAVISVP2,2013-07-02 07:50:00,
2013-07-02 03:52:00,60.5,57.6,29.16,ENE,78,3.0,8.0,90,0.00,,,0.00,WUHU216DAVISVP2,2013-07-02 07:52:00,
2013-07-02 03:53:00,60.5,57.5,29.16,ENE,77,2.0,8.0,90,0.00,,,0.00,WUHU216DAVISVP2,2013-07-02 07:53:00,
2013-07-02 03:54:00,60.5,57.5,29.16,ENE,77,1.0,8.0,90,0.00,,,0.00,WUHU216DAVISVP2,2013-07-02 07:54:00,
2013-07-02 03:55:00,60.5,57.5,29.16,ENE,77,1.0,8.0,90,0.00,,,0.00,WUHU216DAVISVP2,2013-07-02 07:55:00,
2013-07-02 03:56:00,60.5,57.6,29.16,ENE,77,2.0,8.0,90,0.00,,,0.00,WUHU216DAVISVP2,2013-07-02 07:56:00,
2013-07-02 03:57:00,60.4,57.8,29.16,ENE,77,2.0,8.0,91,0.00,,,0.00,WUHU216DAVISVP2,2013-07-02 07:57:00,
2013-07-02 03:58:00,60.4,57.8,29.16,ENE,77,0.0,8.0,91,0.00,,,0.00,WUHU216DAVISVP2,2013-07-02 07:58:00,
2013-07-02 03:59:00,60.4,57.8,29.16,East,83,2.0,7.0,91,0.00,,,0.00,WUHU216DAVISVP2,2013-07-02 07:59:00,
2013-07-02 04:00:00,60.4,57.8,29.16,East,83,1.0,7.0,91,0.00,,,0.00,WUHU216DAVISVP2,2013-07-02 08:00:00,
2013-07-02 04:01:00,60.4,57.8,29.16,East,83,1.0,6.0,91,0.00,,,0.00,WUHU216DAVISVP2,2013-07-02 08:01:00,
2013-07-02 04:03:00,60.3,57.7,29.16,ENE,73,3.0,6.0,91,0.00,,,0.00,WUHU216DAVISVP2,2013-07-02 08:03:00,
2013-07-02 04:04:00,60.3,57.7,29.16,ENE,73,4.0,6.0,91,0.00,,,0.00,WUHU216DAVISVP2,2013-07-02 08:04:00,
2013-07-02 04:05:00,60.3,57.7,29.16,ENE,72,1.0,6.0,91,0.00,,,0.00,WUHU216DAVISVP2,2013-07-02 08:05:00,
2013-07-02 04:06:00,60.3,58.0,29.16,ENE,72,1.0,6.0,92,0.00,,,0.00,WUHU216DAVISVP2,2013-07-02 08:06:00,
2013-07-02 04:08:00,60.3,58.0,29.16,ENE,72,4.0,6.0,92,0.00,,,0.00,WUHU216DAVISVP2,2013-07-02 08:08:00,
2013-07-02 04:09:00,60.3,58.0,29.16,ENE,73,5.0,6.0,92,0.00,,,0.00,WUHU216DAVISVP2,2013-07-02 08:09:00,
2013-07-02 04:10:00,60.3,58.0,29.16,ENE,72,5.0,6.0,92,0.00,,,0.00,WUHU216DAVISVP2,2013-07-02 08:10:00,
2013-07-02 04:11:00,60.3,58.0,29.16,ENE,73,0.0,6.0,92,0.00,,,0.00,WUHU216DAVISVP2,2013-07-02 08:11:00,
2013-07-02 04:13:00,60.3,57.9,29.16,ENE,72,1.0,6.0,92,0.00,,,0.00,WUHU216DAVISVP2,2013-07-02 08:13:00,
2013-07-02 04:14:00,60.3,57.9,29.16,ENE,72,3.0,6.0,92,0.00,,,0.00,WUHU216DAVISVP2,2013-07-02 08:14:00,
2013-07-02 04:15:00,60.3,57.9,29.16,ENE,73,0.0,6.0,92,0.00,,,0.00,WUHU216DAVISVP2,2013-07-02 08:15:00,
2013-07-02 04:16:00,60.3,57.9,29.16,ENE,72,0.0,6.0,92,0.00,,,0.00,WUHU216DAVISVP2,2013-07-02 08:16:00,
2013-07-02 04:18:00,60.3,57.9,29.16,ENE,72,1.0,6.0,92,0.00,,,0.00,WUHU216DAVISVP2,2013-07-02 08:18:00,
2013-07-02 04:19:00,60.3,57.9,29.16,ENE,72,1.0,6.0,92,0.00,,,0.00,WUHU216DAVISVP2,2013-07-02 08:19:00,
2013-07-02 04:20:00,60.3,58.0,29.16,ENE,72,4.0,6.0,92,0.00,,,0.00,WUHU216DAVISVP2,2013-07-02 08:20:00,
2013-07-02 04:21:00,60.3,58.0,29.16,ENE,72,1.0,5.0,92,0.00,,,0.00,WUHU216DAVISVP2,2013-07-02 08:21:00,
2013-07-02 04:23:00,60.3,58.0,29.16,ENE,73,0.0,5.0,92,0.00,,,0.00,WUHU216DAVISVP2,2013-07-02 08:23:00,
2013-07-02 04:24:00,60.3,58.0,29.16,ENE,72,0.0,5.0,92,0.00,,,0.00,WUHU216DAVISVP2,2013-07-02 08:24:00,
2013-07-02 04:25:00,60.3,58.0,29.16,ENE,73,1.0,5.0,92,0.00,,,0.00,WUHU216DAVISVP2,2013-07-02 08:25:00,
2013-07-02 04:26:00,60.3,58.0,29.16,ENE,73,1.0,5.0,92,0.00,,,0.00,WUHU216DAVISVP2,2013-07-02 08:26:00,
2013-07-02 04:28:00,60.3,58.0,29.16,ENE,72,0.0,5.0,92,0.00,,,0.00,WUHU216DAVISVP2,2013-07-02 08:28:00,
2013-07-02 04:29:00,60.3,58.0,29.16,ENE,73,1.0,5.0,92,0.00,,,0.00,WUHU216DAVISVP2,2013-07-02 08:29:00,
2013-07-02 04:31:00,60.4,58.1,29.16,ENE,72,0.0,5.0,92,0.00,,,0.00,WUHU216DAVISVP2,2013-07-02 08:31:00,
2013-07-02 04:32:00,60.4,58.1,29.16,ENE,73,0.0,5.0,92,0.00,,,0.00,WUHU216DAVISVP2,2013-07-02 08:32:00,
2013-07-02 04:33:00,60.4,58.4,29.16,ENE,72,0.0,5.0,93,0.00,,,0.00,WUHU216DAVISVP2,2013-07-02 08:33:00,
2013-07-02 04:35:00,60.5,58.2,29.16,ENE,72,0.0,5.0,92,0.00,,,0.00,WUHU216DAVISVP2,2013-07-02 08:35:00,
2013-07-02 04:36:00,60.4,58.1,29.16,ENE,73,1.0,5.0,92,0.00,,,0.00,WUHU216DAVISVP2,2013-07-02 08:36:00,
2013-07-02 04:37:00,60.4,58.0,29.16,ENE,73,2.0,5.0,92,0.00,,,0.00,WUHU216DAVISVP2,2013-07-02 08:37:00,
2013-07-02 04:39:00,60.4,58.0,29.16,ENE,72,4.0,5.0,92,0.00,,,0.00,WUHU216DAVISVP2,2013-07-02 08:39:00,
2013-07-02 04:40:00,60.4,58.0,29.16,ENE,72,1.0,5.0,92,0.00,,,0.00,WUHU216DAVISVP2,2013-07-02 08:40:00,
2013-07-02 04:41:00,60.4,58.0,29.16,ENE,73,0.0,5.0,92,0.00,,,0.00,WUHU216DAVISVP2,2013-07-02 08:41:00,
2013-07-02 04:42:00,60.5,58.1,29.16,ENE,73,2.0,5.0,92,0.00,,,0.00,WUHU216DAVISVP2,2013-07-02 08:42:00,
2013-07-02 04:44:00,60.5,58.2,29.16,ENE,73,4.0,5.0,92,0.00,,,0.00,WUHU216DAVISVP2,2013-07-02 08:44:00,
2013-07-02 04:45:00,60.5,58.2,29.16,ENE,72,2.0,5.0,92,0.00,,,0.00,WUHU216DAVISVP2,2013-07-02 08:45:00,
2013-07-02 04:46:00,60.5,58.2,29.16,ENE,72,2.0,5.0,92,0.00,,,0.00,WUHU216DAVISVP2,2013-07-02 08:46:00,
2013-07-02 04:47:00,60.5,58.1,29.16,ENE,72,1.0,5.0,92,0.00,,,0.00,WUHU216DAVISVP2,2013-07-02 08:47:00,
2013-07-02 04:49:00,60.5,58.1,29.16,ENE,73,0.0,5.0,92,0.00,,,0.00,WUHU216DAVISVP2,2013-07-02 08:49:00,
2013-07-02 04:50:00,60.5,58.1,29.16,ENE,72,1.0,5.0,92,0.00,,,0.00,WUHU216DAVISVP2,2013-07-02 08:50:00,
2013-07-02 04:51:00,60.6,58.2,29.16,ENE,72,0.0,5.0,92,0.00,,,0.00,WUHU216DAVISVP2,2013-07-02 08:51:00,
2013-07-02 04:52:00,60.6,58.2,29.16,ENE,73,0.0,5.0,92,0.00,,,0.00,WUHU216DAVISVP2,2013-07-02 08:52:00,
2013-07-02 04:53:00,60.6,58.2,29.16,ENE,73,1.0,5.0,92,0.00,,,0.00,WUHU216DAVISVP2,2013-07-02 08:53:00,
2013-07-02 04:54:00,60.6,58.2,29.16,ENE,73,2.0,5.0,92,0.00,,,0.00,WUHU216DAVISVP2,2013-07-02 08:54:00,
2013-07-02 04:55:00,60.6,58.2,29.16,ENE,72,2.0,5.0,92,0.00,,,0.00,WUHU216DAVISVP2,2013-07-02 08:55:00,
2013-07-02 04:56:00,60.6,58.2,29.16,ENE,72,1.0,5.0,92,0.00,,,0.00,WUHU216DAVISVP2,2013-07-02 08:56:00,
2013-07-02 04:57:00,60.6,58.3,29.16,ENE,73,1.0,5.0,92,0.00,,,0.00,WUHU216DAVISVP2,2013-07-02 08:57:00,
2013-07-02 04:58:00,60.7,58.4,29.16,ENE,73,0.0,5.0,92,0.00,,,0.00,WUHU216DAVISVP2,2013-07-02 08:58:00,
2013-07-02 04:59:00,60.7,58.4,29.16,ENE,73,2.0,4.0,92,0.00,,,0.00,WUHU216DAVISVP2,2013-07-02 08:59:00,
2013-07-02 05:00:00,60.7,58.4,29.16,ENE,72,2.0,4.0,92,0.00,,,0.00,WUHU216DAVISVP2,2013-07-02 09:00:00,
2013-07-02 05:01:00,60.7,58.4,29.16,ENE,72,6.0,7.0,92,0.00,,,0.00,WUHU216DAVISVP2,2013-07-02 09:01:00,
2013-07-02 05:02:00,60.7,58.4,29.16,ENE,73,3.0,7.0,92,0.00,,,0.00,WUHU216DAVISVP2,2013-07-02 09:02:00,
2013-07-02 05:03:00,60.7,58.4,29.16,ENE,73,1.0,7.0,92,0.00,,,0.00,WUHU216DAVISVP2,2013-07-02 09:03:00,
2013-07-02 05:04:00,60.7,58.4,29.16,ENE,72,1.0,7.0,92,0.00,,,0.00,WUHU216DAVISVP2,2013-07-02 09:04:00,
2013-07-02 05:06:00,60.8,58.4,29.17,ENE,73,2.0,7.0,92,0.00,,,0.00,WUHU216DAVISVP2,2013-07-02 09:06:00,
2013-07-02 05:07:00,60.8,58.4,29.17,ENE,73,0.0,7.0,92,0.00,,,0.00,WUHU216DAVISVP2,2013-07-02 09:07:00,
2013-07-02 05:08:00,60.9,58.5,29.17,ENE,73,4.0,7.0,92,0.00,,,0.00,WUHU216DAVISVP2,2013-07-02 09:08:00,
2013-07-02 05:09:00,60.8,58.4,29.17,ENE,73,2.0,7.0,92,0.00,,,0.00,WUHU216DAVISVP2,2013-07-02 09:09:00,
2013-07-02 05:11:00,60.9,58.5,29.17,ENE,60,4.0,7.0,92,0.00,,,0.00,WUHU216DAVISVP2,2013-07-02 09:11:00,
2013-07-02 05:12:00,60.9,58.6,29.17,ENE,60,6.0,7.0,92,0.00,,,0.00,WUHU216DAVISVP2,2013-07-02 09:12:00,
2013-07-02 05:13:00,60.9,58.6,29.17,ENE,60,3.0,7.0,92,0.00,,,0.00,WUHU216DAVISVP2,2013-07-02 09:13:00,
2013-07-02 05:14:00,60.9,58.6,29.17,ENE,60,4.0,7.0,92,0.00,,,0.00,WUHU216DAVISVP2,2013-07-02 09:14:00,
2013-07-02 05:16:00,60.9,58.3,29.17,ENE,63,6.0,7.0,91,0.00,,,0.00,WUHU216DAVISVP2,2013-07-02 09:16:00,
2013-07-02 05:17:00,61.0,58.4,29.17,ENE,63,5.0,7.0,91,0.00,,,0.00,WUHU216DAVISVP2,2013-07-02 09:17:00,
2013-07-02 05:18:00,61.0,58.4,29.17,NE,54,5.0,7.0,91,0.00,,,0.00,WUHU216DAVISVP2,2013-07-02 09:18:00,
2013-07-02 05:19:00,61.0,58.4,29.17,NE,54,5.0,7.0,91,0.00,,,0.00,WUHU216DAVISVP2,2013-07-02 09:19:00,
2013-07-02 05:20:00,61.0,58.4,29.17,ENE,73,5.0,7.0,91,0.00,,,0.00,WUHU216DAVISVP2,2013-07-02 09:20:00,
2013-07-02 05:21:00,61.1,58.5,29.17,ENE,66,4.0,7.0,91,0.00,,,0.00,WUHU216DAVISVP2,2013-07-02 09:21:00,
2013-07-02 05:22:00,61.1,58.5,29.17,ENE,66,4.0,7.0,91,0.00,,,0.00,WUHU216DAVISVP2,2013-07-02 09:22:00,
2013-07-02 05:23:00,61.1,58.5,29.17,ENE,66,5.0,7.0,91,0.00,,,0.00,WUHU216DAVISVP2,2013-07-02 09:23:00,
2013-07-02 05:24:00,61.1,58.5,29.17,ENE,66,3.0,7.0,91,0.00,,,0.00,WUHU216DAVISVP2,2013-07-02 09:24:00,
2013-07-02 05:25:00,61.1,58.5,29.17,ENE,78,2.0,7.0,91,0.00,,,0.00,WUHU216DAVISVP2,2013-07-02 09:25:00,
2013-07-02 05:26:00,61.1,58.5,29.17,ENE,66,5.0,7.0,91,0.00,,,0.00,WUHU216DAVISVP2,2013-07-02 09:26:00,
2013-07-02 05:27:00,61.1,58.5,29.17,ENE,66,0.0,7.0,91,0.00,,,0.00,WUHU216DAVISVP2,2013-07-02 09:27:00,
2013-07-02 05:28:00,61.1,58.5,29.17,ENE,65,1.0,7.0,91,0.00,,,0.00,WUHU216DAVISVP2,2013-07-02 09:28:00,
2013-07-02 05:29:00,61.1,58.4,29.18,ENE,66,5.0,7.0,91,0.00,,,0.00,WUHU216DAVISVP2,2013-07-02 09:29:00,
2013-07-02 05:30:00,61.1,58.4,29.18,ENE,66,2.0,7.0,91,0.00,,,0.00,WUHU216DAVISVP2,2013-07-02 09:30:00,
2013-07-02 05:31:00,61.1,58.4,29.18,ENE,65,1.0,7.0,91,0.00,,,0.00,WUHU216DAVISVP2,2013-07-02 09:31:00,
2013-07-02 05:32:00,61.1,58.4,29.18,ENE,65,2.0,7.0,91,0.00,,,0.00,WUHU216DAVISVP2,2013-07-02 09:32:00,
2013-07-02 05:33:00,61.1,58.4,29.18,ENE,68,7.0,7.0,91,0.00,,,0.00,WUHU216DAVISVP2,2013-07-02 09:33:00,
2013-07-02 05:34:00,61.1,58.4,29.18,ENE,67,6.0,7.0,91,0.00,,,0.00,WUHU216DAVISVP2,2013-07-02 09:34:00,
2013-07-02 05:35:00,61.1,58.4,29.18,East,89,5.0,7.0,91,0.00,,,0.00,WUHU216DAVISVP2,2013-07-02 09:35:00,
2013-07-02 05:36:00,61.1,58.5,29.17,East,85,2.0,7.0,91,0.00,,,0.00,WUHU216DAVISVP2,2013-07-02 09:36:00,
2013-07-02 05:38:00,61.1,58.5,29.17,East,95,4.0,7.0,91,0.00,,,0.00,WUHU216DAVISVP2,2013-07-02 09:38:00,
2013-07-02 05:39:00,61.1,58.4,29.17,ENE,65,5.0,7.0,91,0.00,,,0.00,WUHU216DAVISVP2,2013-07-02 09:39:00,
2013-07-02 05:40:00,61.1,58.4,29.17,ENE,66,7.0,7.0,91,0.00,,,0.00,WUHU216DAVISVP2,2013-07-02 09:40:00,
2013-07-02 05:41:00,61.1,58.4,29.17,ENE,73,7.0,7.0,91,0.00,,,0.00,WUHU216DAVISVP2,2013-07-02 09:41:00,
2013-07-02 05:43:00,61.1,58.4,29.17,ENE,77,6.0,7.0,91,0.00,,,0.00,WUHU216DAVISVP2,2013-07-02 09:43:00,
2013-07-02 05:44:00,61.0,58.3,29.17,ENE,66,4.0,8.0,91,0.00,,,0.00,WUHU216DAVISVP2,2013-07-02 09:44:00,
2013-07-02 05:45:00,61.0,58.3,29.17,ENE,67,4.0,8.0,91,0.00,,,0.00,WUHU216DAVISVP2,2013-07-02 09:45:00,
2013-07-02 05:46:00,61.1,58.4,29.17,ENE,73,6.0,8.0,91,0.00,,,0.00,WUHU216DAVISVP2,2013-07-02 09:46:00,
2013-07-02 05:48:00,61.1,58.4,29.17,ENE,66,9.0,9.0,91,0.00,,,0.00,WUHU216DAVISVP2,2013-07-02 09:48:00,
2013-07-02 05:49:00,61.0,58.3,29.17,ENE,74,4.0,9.0,91,0.00,,,0.00,WUHU216DAVISVP2,2013-07-02 09:49:00,
2013-07-02 05:50:00,61.0,58.3,29.17,ENE,57,8.0,9.0,91,0.00,,,0.00,WUHU216DAVISVP2,2013-07-02 09:50:00,
2013-07-02 05:51:00,61.0,58.3,29.17,ENE,57,8.0,10.0,91,0.00,,,0.00,WUHU216DAVISVP2,2013-07-02 09:51:00,
2013-07-02 05:54:00,60.9,58.3,29.17,ENE,64,8.0,10.0,91,0.00,,,0.00,WUHU216DAVISVP2,2013-07-02 09:54:00,
2013-07-02 05:55:00,60.9,58.3,29.17,NE,52,11.0,11.0,91,0.00,,,0.00,WUHU216DAVISVP2,2013-07-02 09:55:00,
2013-07-02 05:56:00,60.9,58.3,29.17,ENE,70,6.0,12.0,91,0.00,,,0.00,WUHU216DAVISVP2,2013-07-02 09:56:00,
2013-07-02 05:59:00,60.8,58.5,29.17,ENE,59,6.0,12.0,92,0.00,,,0.00,WUHU216DAVISVP2,2013-07-02 09:59:00,
2013-07-02 06:00:00,60.8,58.5,29.17,ENE,63,9.0,12.0,92,0.00,,,0.00,WUHU216DAVISVP2,2013-07-02 10:00:00,
2013-07-02 06:01:00,60.8,58.5,29.17,ENE,64,7.0,12.0,92,0.00,,,0.00,WUHU216DAVISVP2,2013-07-02 10:01:00,
2013-07-02 06:04:00,60.7,58.3,29.17,ENE,67,9.0,12.0,92,0.00,,,0.00,WUHU216DAVISVP2,2013-07-02 10:04:00,
2013-07-02 06:05:00,60.7,58.3,29.17,ENE,63,8.0,12.0,92,0.00,,,0.00,WUHU216DAVISVP2,2013-07-02 10:05:00,
2013-07-02 06:06:00,60.7,58.3,29.17,ENE,59,7.0,12.0,92,0.00,,,0.00,WUHU216DAVISVP2,2013-07-02 10:06:00,
2013-07-02 06:09:00,60.6,58.2,29.17,ENE,69,8.0,12.0,92,0.00,,,0.00,WUHU216DAVISVP2,2013-07-02 10:09:00,
2013-07-02 06:10:00,60.6,58.2,29.17,ENE,59,7.0,12.0,92,0.00,,,0.00,WUHU216DAVISVP2,2013-07-02 10:10:00,
2013-07-02 06:11:00,60.6,58.2,29.17,ENE,62,5.0,12.0,92,0.00,,,0.00,WUHU216DAVISVP2,2013-07-02 10:11:00,
2013-07-02 06:12:00,60.6,58.2,29.17,ENE,62,5.0,12.0,92,0.00,,,0.00,WUHU216DAVISVP2,2013-07-02 10:12:00,
2013-07-02 06:14:00,60.6,58.2,29.17,ENE,57,9.0,12.0,92,0.00,,,0.00,WUHU216DAVISVP2,2013-07-02 10:14:00,
2013-07-02 06:15:00,60.6,58.2,29.17,ENE,60,5.0,12.0,92,0.00,,,0.00,WUHU216DAVISVP2,2013-07-02 10:15:00,
2013-07-02 06:16:00,60.6,58.2,29.17,ENE,66,5.0,12.0,92,0.00,,,0.00,WUHU216DAVISVP2,2013-07-02 10:16:00,
2013-07-02 06:17:00,60.5,58.1,29.17,ENE,70,5.0,12.0,92,0.00,,,0.00,WUHU216DAVISVP2,2013-07-02 10:17:00,
2013-07-02 06:20:00,60.5,58.1,29.17,ENE,60,8.0,12.0,92,0.00,,,0.00,WUHU216DAVISVP2,2013-07-02 10:20:00,
2013-07-02 06:21:00,60.5,58.1,29.17,ENE,68,4.0,12.0,92,0.00,,,0.00,WUHU216DAVISVP2,2013-07-02 10:21:00,
2013-07-02 06:22:00,60.5,58.1,29.17,ENE,66,4.0,12.0,92,0.00,,,0.00,WUHU216DAVISVP2,2013-07-02 10:22:00,
2013-07-02 06:25:00,60.5,58.5,29.17,ENE,61,9.0,11.0,93,0.00,,,0.00,WUHU216DAVISVP2,2013-07-02 10:25:00,
2013-07-02 06:26:00,60.5,58.5,29.17,ENE,66,6.0,11.0,93,0.00,,,0.00,WUHU216DAVISVP2,2013-07-02 10:26:00,
2013-07-02 06:27:00,60.4,58.4,29.17,ENE,75,5.0,10.0,93,0.00,,,0.00,WUHU216DAVISVP2,2013-07-02 10:27:00,
2013-07-02 06:28:00,60.5,58.5,29.17,ENE,64,7.0,10.0,93,0.00,,,0.00,WUHU216DAVISVP2,2013-07-02 10:28:00,
2013-07-02 06:30:00,60.5,58.5,29.17,ENE,58,6.0,10.0,93,0.00,,,0.00,WUHU216DAVISVP2,2013-07-02 10:30:00,
2013-07-02 06:31:00,60.4,58.3,29.17,ENE,58,2.0,10.0,93,0.00,,,0.00,WUHU216DAVISVP2,2013-07-02 10:31:00,
2013-07-02 06:32:00,60.4,58.3,29.17,ENE,70,2.0,10.0,93,0.00,,,0.00,WUHU216DAVISVP2,2013-07-02 10:32:00,
2013-07-02 06:33:00,60.4,58.3,29.17,ENE,70,1.0,10.0,93,0.00,,,0.00,WUHU216DAVISVP2,2013-07-02 10:33:00,
2013-07-02 06:35:00,60.4,58.3,29.17,ENE,68,5.0,10.0,93,0.00,,,0.00,WUHU216DAVISVP2,2013-07-02 10:35:00,
2013-07-02 06:36:00,60.4,58.3,29.17,ENE,68,5.0,10.0,93,0.00,,,0.00,WUHU216DAVISVP2,2013-07-02 10:36:00,
2013-07-02 06:37:00,60.4,58.3,29.17,ENE,68,6.0,10.0,93,0.00,,,0.00,WUHU216DAVISVP2,2013-07-02 10:37:00,
2013-07-02 06:38:00,60.4,58.3,29.17,ENE,68,5.0,10.0,93,0.00,,,0.00,WUHU216DAVISVP2,2013-07-02 10:38:00,
2013-07-02 06:40:00,60.4,58.3,29.17,ENE,73,6.0,10.0,93,0.00,,,0.00,WUHU216DAVISVP2,2013-07-02 10:40:00,
2013-07-02 06:42:00,60.4,58.3,29.17,ENE,76,6.0,10.0,93,0.00,,,0.00,WUHU216DAVISVP2,2013-07-02 10:42:00,
2013-07-02 06:43:00,60.4,58.3,29.17,East,80,3.0,10.0,93,0.00,,,0.00,WUHU216DAVISVP2,2013-07-02 10:43:00,
2013-07-02 06:45:00,60.4,58.3,29.17,NE,56,1.0,8.0,93,0.00,,,0.00,WUHU216DAVISVP2,2013-07-02 10:45:00,
2013-07-02 06:46:00,60.4,58.3,29.17,NE,56,1.0,8.0,93,0.00,,,0.00,WUHU216DAVISVP2,2013-07-02 10:46:00,
2013-07-02 06:47:00,60.4,58.3,29.17,ENE,57,4.0,8.0,93,0.00,,,0.00,WUHU216DAVISVP2,2013-07-02 10:47:00,
2013-07-02 06:48:00,60.4,58.3,29.17,ENE,57,2.0,8.0,93,0.00,,,0.00,WUHU216DAVISVP2,2013-07-02 10:48:00,
2013-07-02 06:50:00,60.4,58.3,29.18,ENE,75,7.0,9.0,93,0.00,,,0.00,WUHU216DAVISVP2,2013-07-02 10:50:00,
2013-07-02 06:51:00,60.4,58.3,29.18,NE,55,7.0,9.0,93,0.00,,,0.00,WUHU216DAVISVP2,2013-07-02 10:51:00,
2013-07-02 06:52:00,60.4,58.4,29.18,ENE,57,7.0,9.0,93,0.00,,,0.00,WUHU216DAVISVP2,2013-07-02 10:52:00,
2013-07-02 06:53:00,60.4,58.4,29.18,ENE,69,6.0,9.0,93,0.00,,,0.00,WUHU216DAVISVP2,2013-07-02 10:53:00,
2013-07-02 06:55:00,60.4,58.3,29.17,NE,50,5.0,9.0,93,0.00,,,0.00,WUHU216DAVISVP2,2013-07-02 10:55:00,
2013-07-02 06:56:00,60.4,58.3,29.17,ENE,73,6.0,9.0,93,0.00,,,0.00,WUHU216DAVISVP2,2013-07-02 10:56:00,
2013-07-02 06:58:00,60.4,58.3,29.17,NE,56,8.0,9.0,93,0.00,,,0.00,WUHU216DAVISVP2,2013-07-02 10:58:00,
2013-07-02 07:01:00,60.3,58.2,29.17,ENE,57,5.0,10.0,93,0.00,,,0.00,WUHU216DAVISVP2,2013-07-02 11:01:00,
2013-07-02 07:03:00,60.3,58.2,29.17,NE,46,7.0,10.0,93,0.00,,,0.00,WUHU216DAVISVP2,2013-07-02 11:03:00,
2013-07-02 07:06:00,60.2,58.1,29.17,ENE,60,7.0,12.0,93,0.00,,,0.00,WUHU216DAVISVP2,2013-07-02 11:06:00,
2013-07-02 07:08:00,60.2,58.1,29.18,ENE,68,5.0,12.0,93,0.00,,,0.00,WUHU216DAVISVP2,2013-07-02 11:08:00,
2013-07-02 07:11:00,60.2,58.2,29.17,East,91,5.0,12.0,93,0.00,,,0.00,WUHU216DAVISVP2,2013-07-02 11:11:00,
2013-07-02 07:13:00,60.2,58.1,29.18,ENE,64,9.0,12.0,93,0.00,,,0.00,WUHU216DAVISVP2,2013-07-02 11:13:00,
2013-07-02 07:14:00,60.2,58.1,29.18,NE,56,9.0,12.0,93,0.00,,,0.00,WUHU216DAVISVP2,2013-07-02 11:14:00,
2013-07-02 07:16:00,60.2,58.1,29.18,ENE,71,5.0,12.0,93,0.00,,,0.00,WUHU216DAVISVP2,2013-07-02 11:16:00,
2013-07-02 07:17:00,60.2,58.1,29.18,ENE,73,6.0,12.0,93,0.00,,,0.00,WUHU216DAVISVP2,2013-07-02 11:17:00,
2013-07-02 07:19:00,60.2,58.1,29.18,East,89,4.0,12.0,93,0.00,,,0.00,WUHU216DAVISVP2,2013-07-02 11:19:00,
2013-07-02 07:22:00,60.2,58.1,29.18,NE,56,4.0,12.0,93,0.00,,,0.00,WUHU216DAVISVP2,2013-07-02 11:22:00,
2013-07-02 07:24:00,60.2,58.1,29.18,ENE,75,7.0,11.0,93,0.00,,,0.00,WUHU216DAVISVP2,2013-07-02 11:24:00,
2013-07-02 07:27:00,60.1,58.0,29.18,East,91,6.0,11.0,93,0.00,,,0.00,WUHU216DAVISVP2,2013-07-02 11:27:00,
2013-07-02 07:29:00,60.1,58.0,29.18,ENE,67,6.0,11.0,93,0.00,,,0.00,WUHU216DAVISVP2,2013-07-02 11:29:00,
2013-07-02 07:30:00,60.1,58.0,29.18,ENE,67,6.0,11.0,93,0.00,,,0.00,WUHU216DAVISVP2,2013-07-02 11:30:00,
2013-07-02 07:32:00,60.1,58.0,29.18,East,95,5.0,11.0,93,0.00,,,0.00,WUHU216DAVISVP2,2013-07-02 11:32:00,
2013-07-02 07:34:00,60.1,58.0,29.18,NE,54,9.0,11.0,93,0.00,,,0.00,WUHU216DAVISVP2,2013-07-02 11:34:00,
2013-07-02 07:35:00,60.2,58.1,29.18,ENE,64,5.0,11.0,93,0.00,,,0.00,WUHU216DAVISVP2,2013-07-02 11:35:00,
2013-07-02 07:37:00,60.2,58.1,29.18,NE,53,8.0,11.0,93,0.00,,,0.00,WUHU216DAVISVP2,2013-07-02 11:37:00,
2013-07-02 07:39:00,60.2,58.1,29.18,ENE,74,5.0,11.0,93,0.00,,,0.00,WUHU216DAVISVP2,2013-07-02 11:39:00,
2013-07-02 07:40:00,60.2,58.1,29.18,NE,54,5.0,11.0,93,0.00,,,0.00,WUHU216DAVISVP2,2013-07-02 11:40:00,
2013-07-02 07:42:00,60.3,58.3,29.18,ENE,64,4.0,11.0,93,0.00,,,0.00,WUHU216DAVISVP2,2013-07-02 11:42:00,
2013-07-02 07:43:00,60.3,58.3,29.18,ENE,65,9.0,11.0,93,0.00,,,0.00,WUHU216DAVISVP2,2013-07-02 11:43:00,
2013-07-02 07:44:00,60.3,58.3,29.18,East,81,6.0,11.0,93,0.00,,,0.00,WUHU216DAVISVP2,2013-07-02 11:44:00,
2013-07-02 07:45:00,60.3,58.3,29.18,ENE,68,6.0,11.0,93,0.00,,,0.00,WUHU216DAVISVP2,2013-07-02 11:45:00,
2013-07-02 07:47:00,60.3,58.3,29.18,ENE,68,6.0,11.0,93,0.00,,,0.00,WUHU216DAVISVP2,2013-07-02 11:47:00,
2013-07-02 07:48:00,60.2,58.2,29.18,ENE,66,6.0,11.0,93,0.00,,,0.00,WUHU216DAVISVP2,2013-07-02 11:48:00,
2013-07-02 07:49:00,60.3,58.3,29.18,ENE,66,6.0,11.0,93,0.00,,,0.00,WUHU216DAVISVP2,2013-07-02 11:49:00,
2013-07-02 07:50:00,60.3,58.3,29.18,ENE,66,6.0,11.0,93,0.00,,,0.00,WUHU216DAVISVP2,2013-07-02 11:50:00,
2013-07-02 07:53:00,60.3,58.3,29.18,East,83,4.0,11.0,93,0.00,,,0.00,WUHU216DAVISVP2,2013-07-02 11:53:00,
2013-07-02 07:54:00,60.4,58.3,29.18,ENE,70,5.0,11.0,93,0.00,,,0.00,WUHU216DAVISVP2,2013-07-02 11:54:00,
2013-07-02 07:55:00,60.4,58.3,29.18,ENE,66,6.0,10.0,93,0.00,,,0.00,WUHU216DAVISVP2,2013-07-02 11:55:00,
2013-07-02 07:58:00,60.4,58.3,29.18,NE,41,2.0,10.0,93,0.00,,,0.00,WUHU216DAVISVP2,2013-07-02 11:58:00,
2013-07-02 07:59:00,60.4,58.4,29.18,NE,44,6.0,10.0,93,0.00,,,0.00,WUHU216DAVISVP2,2013-07-02 11:59:00,
2013-07-02 08:00:00,60.4,58.4,29.18,NE,53,6.0,10.0,93,0.00,,,0.00,WUHU216DAVISVP2,2013-07-02 12:00:00,
2013-07-02 08:01:00,60.4,58.4,29.18,ENE,62,5.0,10.0,93,0.00,,,0.00,WUHU216DAVISVP2,2013-07-02 12:01:00,
2013-07-02 08:03:00,60.5,58.5,29.18,ENE,67,9.0,11.0,93,0.00,,,0.00,WUHU216DAVISVP2,2013-07-02 12:03:00,
2013-07-02 08:05:00,60.5,58.5,29.18,ENE,60,8.0,11.0,93,0.00,,,0.00,WUHU216DAVISVP2,2013-07-02 12:05:00,
2013-07-02 08:06:00,60.5,58.5,29.18,ENE,74,5.0,11.0,93,0.00,,,0.00,WUHU216DAVISVP2,2013-07-02 12:06:00,
2013-07-02 08:08:00,60.5,58.4,29.19,ENE,66,5.0,11.0,93,0.00,,,0.00,WUHU216DAVISVP2,2013-07-02 12:08:00,
2013-07-02 08:10:00,60.5,58.4,29.19,NE,56,8.0,12.0,93,0.00,,,0.00,WUHU216DAVISVP2,2013-07-02 12:10:00,
2013-07-02 08:11:00,60.5,58.4,29.18,NE,51,11.0,12.0,93,0.00,,,0.00,WUHU216DAVISVP2,2013-07-02 12:11:00,
2013-07-02 08:13:00,60.5,58.4,29.18,ENE,77,5.0,12.0,93,0.00,,,0.00,WUHU216DAVISVP2,2013-07-02 12:13:00,
2013-07-02 08:14:00,60.5,58.5,29.18,East,79,8.0,12.0,93,0.00,,,0.00,WUHU216DAVISVP2,2013-07-02 12:14:00,
2013-07-02 08:15:00,60.5,58.5,29.18,NE,52,2.0,12.0,93,0.00,,,0.00,WUHU216DAVISVP2,2013-07-02 12:15:00,
2013-07-02 08:16:00,60.5,58.5,29.18,ENE,60,6.0,12.0,93,0.00,,,0.00,WUHU216DAVISVP2,2013-07-02 12:16:00,
2013-07-02 08:18:00,60.5,58.5,29.18,NE,53,4.0,12.0,93,0.00,,,0.00,WUHU216DAVISVP2,2013-07-02 12:18:00,
2013-07-02 08:19:00,60.6,58.6,29.18,NE,53,5.0,12.0,93,0.00,,,0.00,WUHU216DAVISVP2,2013-07-02 12:19:00,
2013-07-02 08:20:00,60.6,58.6,29.18,ENE,59,7.0,12.0,93,0.00,,,0.00,WUHU216DAVISVP2,2013-07-02 12:20:00,
2013-07-02 08:21:00,60.6,58.6,29.18,ENE,64,7.0,12.0,93,0.00,,,0.00,WUHU216DAVISVP2,2013-07-02 12:21:00,
2013-07-02 08:24:00,60.6,58.6,29.18,NE,49,4.0,12.0,93,0.00,,,0.00,WUHU216DAVISVP2,2013-07-02 12:24:00,
2013-07-02 08:25:00,60.6,58.6,29.18,East,81,6.0,12.0,93,0.00,,,0.00,WUHU216DAVISVP2,2013-07-02 12:25:00,
2013-07-02 08:26:00,60.6,58.6,29.18,ENE,78,5.0,12.0,93,0.00,,,0.00,WUHU216DAVISVP2,2013-07-02 12:26:00,
2013-07-02 08:29:00,60.5,58.4,29.19,East,97,8.0,13.0,93,0.00,,,0.00,WUHU216DAVISVP2,2013-07-02 12:29:00,
2013-07-02 08:30:00,60.6,58.5,29.18,ENE,76,9.0,13.0,93,0.00,,,0.00,WUHU216DAVISVP2,2013-07-02 12:30:00,
2013-07-02 08:31:00,60.6,58.5,29.18,NE,56,7.0,13.0,93,0.00,,,0.00,WUHU216DAVISVP2,2013-07-02 12:31:00,
2013-07-02 08:32:00,60.6,58.5,29.19,ESE,103,7.0,13.0,93,0.00,,,0.00,WUHU216DAVISVP2,2013-07-02 12:32:00,
2013-07-02 08:34:00,60.7,58.6,29.19,ENE,78,6.0,13.0,93,0.00,,,0.00,WUHU216DAVISVP2,2013-07-02 12:34:00,
2013-07-02 08:35:00,60.7,58.6,29.18,East,97,13.0,13.0,93,0.00,,,0.00,WUHU216DAVISVP2,2013-07-02 12:35:00,
2013-07-02 08:36:00,60.6,58.5,29.18,ENE,70,5.0,13.0,93,0.00,,,0.00,WUHU216DAVISVP2,2013-07-02 12:36:00,
2013-07-02 08:37:00,60.6,58.5,29.19,ENE,70,4.0,13.0,93,0.00,,,0.00,WUHU216DAVISVP2,2013-07-02 12:37:00,
2013-07-02 08:39:00,60.7,58.7,29.19,NE,54,5.0,13.0,93,0.00,,,0.00,WUHU216DAVISVP2,2013-07-02 12:39:00,
2013-07-02 08:40:00,60.7,58.7,29.19,ENE,60,7.0,13.0,93,0.00,,,0.00,WUHU216DAVISVP2,2013-07-02 12:40:00,
2013-07-02 08:41:00,60.7,58.7,29.19,ENE,70,9.0,13.0,93,0.00,,,0.00,WUHU216DAVISVP2,2013-07-02 12:41:00,
2013-07-02 08:42:00,60.6,58.6,29.19,ENE,66,12.0,13.0,93,0.00,,,0.00,WUHU216DAVISVP2,2013-07-02 12:42:00,
2013-07-02 08:45:00,60.6,58.5,29.19,ESE,105,10.0,13.0,93,0.00,,,0.00,WUHU216DAVISVP2,2013-07-02 12:45:00,
2013-07-02 08:46:00,60.7,58.6,29.19,ENE,68,5.0,13.0,93,0.00,,,0.00,WUHU216DAVISVP2,2013-07-02 12:46:00,
2013-07-02 08:47:00,60.7,58.6,29.19,NE,56,8.0,13.0,93,0.00,,,0.00,WUHU216DAVISVP2,2013-07-02 12:47:00,
2013-07-02 08:48:00,60.7,58.6,29.19,ENE,67,7.0,13.0,93,0.00,,,0.00,WUHU216DAVISVP2,2013-07-02 12:48:00,
2013-07-02 08:50:00,60.7,58.6,29.19,ENE,73,7.0,13.0,93,0.00,,,0.00,WUHU216DAVISVP2,2013-07-02 12:50:00,
2013-07-02 08:51:00,60.7,58.6,29.19,ENE,68,7.0,13.0,93,0.00,,,0.00,WUHU216DAVISVP2,2013-07-02 12:51:00,
2013-07-02 08:52:00,60.7,58.6,29.19,ENE,70,5.0,13.0,93,0.00,,,0.00,WUHU216DAVISVP2,2013-07-02 12:52:00,
2013-07-02 08:53:00,60.7,58.6,29.19,ENE,73,2.0,13.0,93,0.00,,,0.00,WUHU216DAVISVP2,2013-07-02 12:53:00,
2013-07-02 08:55:00,60.8,58.7,29.19,ENE,67,6.0,13.0,93,0.00,,,0.00,WUHU216DAVISVP2,2013-07-02 12:55:00,
2013-07-02 08:56:00,60.8,58.7,29.19,ENE,70,5.0,12.0,93,0.00,,,0.00,WUHU216DAVISVP2,2013-07-02 12:56:00,
2013-07-02 08:58:00,60.8,58.7,29.19,ENE,62,6.0,12.0,93,0.00,,,0.00,WUHU216DAVISVP2,2013-07-02 12:58:00,
2013-07-02 09:00:00,60.8,58.8,29.19,NE,54,8.0,12.0,93,0.00,,,0.00,WUHU216DAVISVP2,2013-07-02 13:00:00,
2013-07-02 09:01:00,60.8,58.8,29.19,East,83,4.0,12.0,93,0.00,,,0.00,WUHU216DAVISVP2,2013-07-02 13:01:00,
2013-07-02 09:03:00,60.8,58.8,29.19,ENE,75,4.0,11.0,93,0.00,,,0.00,WUHU216DAVISVP2,2013-07-02 13:03:00,
2013-07-02 09:04:00,60.8,58.8,29.19,ENE,75,4.0,11.0,93,0.00,,,0.00,WUHU216DAVISVP2,2013-07-02 13:04:00,
2013-07-02 09:05:00,60.9,58.9,29.19,ENE,77,5.0,11.0,93,0.00,,,0.00,WUHU216DAVISVP2,2013-07-02 13:05:00,
2013-07-02 09:06:00,60.9,58.9,29.19,ENE,71,7.0,11.0,93,0.00,,,0.00,WUHU216DAVISVP2,2013-07-02 13:06:00,
2013-07-02 09:08:00,60.8,58.8,29.19,East,93,6.0,11.0,93,0.00,,,0.00,WUHU216DAVISVP2,2013-07-02 13:08:00,
2013-07-02 09:09:00,60.8,58.7,29.19,ENE,58,0.0,10.0,93,0.00,,,0.00,WUHU216DAVISVP2,2013-07-02 13:09:00,
2013-07-02 09:10:00,60.8,58.7,29.19,East,89,7.0,9.0,93,0.00,,,0.00,WUHU216DAVISVP2,2013-07-02 13:10:00,
2013-07-02 09:11:00,60.8,58.7,29.19,ENE,66,7.0,9.0,93,0.00,,,0.00,WUHU216DAVISVP2,2013-07-02 13:11:00,
2013-07-02 09:14:00,60.8,58.7,29.19,East,79,7.0,9.0,93,0.00,,,0.00,WUHU216DAVISVP2,2013-07-02 13:14:00,
2013-07-02 09:15:00,60.9,58.8,29.19,ENE,63,10.0,10.0,93,0.00,,,0.00,WUHU216DAVISVP2,2013-07-02 13:15:00,
2013-07-02 09:16:00,60.9,58.8,29.19,ESE,110,4.0,10.0,93,0.00,,,0.00,WUHU216DAVISVP2,2013-07-02 13:16:00,
2013-07-02 09:17:00,60.8,58.7,29.19,ENE,73,5.0,10.0,93,0.00,,,0.00,WUHU216DAVISVP2,2013-07-02 13:17:00,
2013-07-02 09:19:00,60.8,58.7,29.19,ENE,65,8.0,10.0,93,0.00,,,0.00,WUHU216DAVISVP2,2013-07-02 13:19:00,
2013-07-02 09:20:00,60.9,58.9,29.19,NE,55,5.0,10.0,93,0.00,,,0.00,WUHU216DAVISVP2,2013-07-02 13:20:00,
2013-07-02 09:21:00,60.9,58.9,29.19,ENE,68,5.0,10.0,93,0.00,,,0.00,WUHU216DAVISVP2,2013-07-02 13:21:00,
2013-07-02 09:22:00,60.9,58.9,29.19,ENE,70,5.0,10.0,93,0.00,,,0.00,WUHU216DAVISVP2,2013-07-02 13:22:00,
2013-07-02 09:24:00,60.9,58.9,29.19,East,79,7.0,10.0,93,0.00,,,0.00,WUHU216DAVISVP2,2013-07-02 13:24:00,
2013-07-02 09:25:00,60.9,58.9,29.19,ENE,65,6.0,10.0,93,0.00,,,0.00,WUHU216DAVISVP2,2013-07-02 13:25:00,
2013-07-02 09:26:00,60.9,58.9,29.19,ENE,70,3.0,10.0,93,0.00,,,0.00,WUHU216DAVISVP2,2013-07-02 13:26:00,
2013-07-02 09:27:00,60.9,58.9,29.19,ENE,67,5.0,10.0,93,0.00,,,0.00,WUHU216DAVISVP2,2013-07-02 13:27:00,
2013-07-02 09:29:00,60.9,58.9,29.19,ENE,76,2.0,10.0,93,0.00,,,0.00,WUHU216DAVISVP2,2013-07-02 13:29:00,
2013-07-02 09:30:00,60.9,58.9,29.19,ENE,76,3.0,10.0,93,0.00,,,0.00,WUHU216DAVISVP2,2013-07-02 13:30:00,
2013-07-02 09:31:00,60.9,58.9,29.19,ENE,76,4.0,10.0,93,0.00,,,0.00,WUHU216DAVISVP2,2013-07-02 13:31:00,
2013-07-02 09:32:00,60.9,58.9,29.19,ENE,76,1.0,10.0,93,0.00,,,0.00,WUHU216DAVISVP2,2013-07-02 13:32:00,
2013-07-02 09:35:00,60.9,58.8,29.19,ENE,73,8.0,11.0,93,0.00,,,0.00,WUHU216DAVISVP2,2013-07-02 13:35:00,
2013-07-02 09:36:00,60.9,58.8,29.19,East,85,6.0,11.0,93,0.00,,,0.00,WUHU216DAVISVP2,2013-07-02 13:36:00,
2013-07-02 09:38:00,60.9,58.8,29.19,ENE,68,5.0,11.0,93,0.00,,,0.00,WUHU216DAVISVP2,2013-07-02 13:38:00,
2013-07-02 09:40:00,60.9,58.8,29.19,NE,48,9.0,11.0,93,0.00,,,0.00,WUHU216DAVISVP2,2013-07-02 13:40:00,
2013-07-02 09:41:00,60.9,58.8,29.19,East,83,5.0,11.0,93,0.00,,,0.00,WUHU216DAVISVP2,2013-07-02 13:41:00,
2013-07-02 09:42:00,60.9,58.8,29.19,East,82,2.0,11.0,93,0.00,,,0.00,WUHU216DAVISVP2,2013-07-02 13:42:00,
2013-07-02 09:43:00,61.0,58.9,29.19,East,82,1.0,11.0,93,0.00,,,0.00,WUHU216DAVISVP2,2013-07-02 13:43:00,
2013-07-02 09:45:00,61.0,58.9,29.19,East,99,8.0,11.0,93,0.00,,,0.00,WUHU216DAVISVP2,2013-07-02 13:45:00,
2013-07-02 09:46:00,61.0,58.9,29.19,East,83,2.0,11.0,93,0.00,,,0.00,WUHU216DAVISVP2,2013-07-02 13:46:00,
2013-07-02 09:47:00,61.0,58.9,29.19,ENE,75,5.0,11.0,93,0.00,,,0.00,WUHU216DAVISVP2,2013-07-02 13:47:00,
2013-07-02 09:48:00,61.0,58.9,29.19,NE,48,6.0,11.0,93,0.00,,,0.00,WUHU216DAVISVP2,2013-07-02 13:48:00,
2013-07-02 09:51:00,61.0,58.9,29.19,East,95,6.0,11.0,93,0.00,,,0.00,WUHU216DAVISVP2,2013-07-02 13:51:00,
2013-07-02 09:52:00,61.0,58.9,29.19,ENE,75,2.0,11.0,93,0.00,,,0.00,WUHU216DAVISVP2,2013-07-02 13:52:00,
2013-07-02 09:53:00,61.0,58.9,29.19,East,100,7.0,11.0,93,0.00,,,0.00,WUHU216DAVISVP2,2013-07-02 13:53:00,
2013-07-02 09:56:00,61.1,59.0,29.20,East,82,4.0,10.0,93,0.00,,,0.00,WUHU216DAVISVP2,2013-07-02 13:56:00,
2013-07-02 09:57:00,61.1,59.0,29.20,ENE,69,6.0,10.0,93,0.00,,,0.00,WUHU216DAVISVP2,2013-07-02 13:57:00,
2013-07-02 09:58:00,61.1,59.0,29.20,East,82,5.0,10.0,93,0.00,,,0.00,WUHU216DAVISVP2,2013-07-02 13:58:00,
2013-07-02 10:01:00,61.1,59.0,29.20,East,85,2.0,9.0,93,0.00,,,0.00,WUHU216DAVISVP2,2013-07-02 14:01:00,
2013-07-02 10:02:00,61.1,59.0,29.20,ENE,78,4.0,9.0,93,0.00,,,0.00,WUHU216DAVISVP2,2013-07-02 14:02:00,
2013-07-02 10:03:00,61.1,59.1,29.20,East,79,1.0,9.0,93,0.00,,,0.00,WUHU216DAVISVP2,2013-07-02 14:03:00,
2013-07-02 10:06:00,61.3,59.3,29.20,ENE,77,4.0,9.0,93,0.00,,,0.00,WUHU216DAVISVP2,2013-07-02 14:06:00,
2013-07-02 10:07:00,61.3,59.3,29.20,NE,52,2.0,9.0,93,0.00,,,0.00,WUHU216DAVISVP2,2013-07-02 14:07:00,
2013-07-02 10:08:00,61.3,59.3,29.20,ENE,78,2.0,9.0,93,0.00,,,0.00,WUHU216DAVISVP2,2013-07-02 14:08:00,
2013-07-02 10:11:00,61.3,59.2,29.20,ENE,58,5.0,8.0,93,0.00,,,0.00,WUHU216DAVISVP2,2013-07-02 14:11:00,
2013-07-02 10:12:00,61.4,59.3,29.20,ENE,64,7.0,8.0,93,0.00,,,0.00,WUHU216DAVISVP2,2013-07-02 14:12:00,
2013-07-02 10:13:00,61.4,59.3,29.20,ENE,75,5.0,8.0,93,0.00,,,0.00,WUHU216DAVISVP2,2013-07-02 14:13:00,
2013-07-02 10:14:00,61.4,59.3,29.20,ENE,59,5.0,8.0,93,0.00,,,0.00,WUHU216DAVISVP2,2013-07-02 14:14:00,
2013-07-02 10:16:00,61.5,59.4,29.20,ENE,70,4.0,8.0,93,0.00,,,0.00,WUHU216DAVISVP2,2013-07-02 14:16:00,
2013-07-02 10:17:00,61.5,59.4,29.20,ENE,78,4.0,8.0,93,0.00,,,0.00,WUHU216DAVISVP2,2013-07-02 14:17:00,
2013-07-02 10:18:00,61.5,59.4,29.20,East,79,1.0,8.0,93,0.00,,,0.00,WUHU216DAVISVP2,2013-07-02 14:18:00,
2013-07-02 10:19:00,61.5,59.4,29.20,East,79,4.0,8.0,93,0.00,,,0.00,WUHU216DAVISVP2,2013-07-02 14:19:00,
2013-07-02 10:21:00,61.5,59.4,29.20,ENE,62,3.0,8.0,93,0.00,,,0.00,WUHU216DAVISVP2,2013-07-02 14:21:00,
2013-07-02 10:22:00,61.5,59.4,29.20,ENE,62,2.0,8.0,93,0.00,,,0.00,WUHU216DAVISVP2,2013-07-02 14:22:00,
2013-07-02 10:23:00,61.5,59.1,29.20,East,79,4.0,8.0,92,0.00,,,0.00,WUHU216DAVISVP2,2013-07-02 14:23:00,
2013-07-02 10:24:00,61.5,59.1,29.20,East,89,2.0,8.0,92,0.00,,,0.00,WUHU216DAVISVP2,2013-07-02 14:24:00,
2013-07-02 10:26:00,61.5,59.5,29.20,ENE,77,5.0,8.0,93,0.00,,,0.00,WUHU216DAVISVP2,2013-07-02 14:26:00,
2013-07-02 10:27:00,61.5,59.5,29.20,ENE,78,4.0,8.0,93,0.00,,,0.00,WUHU216DAVISVP2,2013-07-02 14:27:00,
2013-07-02 10:28:00,61.5,59.5,29.20,ENE,78,4.0,8.0,93,0.00,,,0.00,WUHU216DAVISVP2,2013-07-02 14:28:00,
2013-07-02 10:29:00,61.5,59.5,29.20,ENE,68,6.0,8.0,93,0.00,,,0.00,WUHU216DAVISVP2,2013-07-02 14:29:00,
2013-07-02 10:31:00,61.6,59.5,29.21,ENE,70,4.0,8.0,93,0.00,,,0.00,WUHU216DAVISVP2,2013-07-02 14:31:00,
2013-07-02 10:33:00,61.6,59.5,29.21,ENE,70,3.0,8.0,93,0.00,,,0.00,WUHU216DAVISVP2,2013-07-02 14:33:00,
2013-07-02 10:34:00,61.6,59.5,29.21,ENE,70,2.0,8.0,93,0.00,,,0.00,WUHU216DAVISVP2,2013-07-02 14:34:00,
2013-07-02 10:37:00,61.6,59.6,29.20,ENE,77,2.0,8.0,93,0.00,,,0.00,WUHU216DAVISVP2,2013-07-02 14:37:00,
2013-07-02 10:38:00,61.6,59.6,29.20,ENE,77,1.0,8.0,93,0.00,,,0.00,WUHU216DAVISVP2,2013-07-02 14:38:00,
2013-07-02 10:39:00,61.6,59.6,29.20,ENE,77,4.0,8.0,93,0.00,,,0.00,WUHU216DAVISVP2,2013-07-02 14:39:00,
2013-07-02 10:42:00,61.7,59.6,29.20,East,80,5.0,7.0,93,0.00,,,0.00,WUHU216DAVISVP2,2013-07-02 14:42:00,
2013-07-02 10:43:00,61.6,59.5,29.20,East,82,2.0,7.0,93,0.00,,,0.00,WUHU216DAVISVP2,2013-07-02 14:43:00,
2013-07-02 10:44:00,61.6,59.5,29.20,East,82,1.0,7.0,93,0.00,,,0.00,WUHU216DAVISVP2,2013-07-02 14:44:00,
2013-07-02 10:47:00,61.7,59.7,29.20,ENE,68,6.0,7.0,93,0.00,,,0.00,WUHU216DAVISVP2,2013-07-02 14:47:00,
2013-07-02 10:48:00,61.8,59.8,29.20,ENE,62,1.0,7.0,93,0.00,,,0.00,WUHU216DAVISVP2,2013-07-02 14:48:00,
2013-07-02 10:49:00,61.8,59.8,29.20,ENE,65,2.0,7.0,93,0.00,,,0.00,WUHU216DAVISVP2,2013-07-02 14:49:00,
2013-07-02 10:52:00,61.7,59.7,29.20,East,83,4.0,9.0,93,0.00,,,0.00,WUHU216DAVISVP2,2013-07-02 14:52:00,
2013-07-02 10:53:00,61.8,59.8,29.20,East,87,5.0,9.0,93,0.00,,,0.00,WUHU216DAVISVP2,2013-07-02 14:53:00,
2013-07-02 10:54:00,61.7,59.7,29.20,East,79,4.0,9.0,93,0.00,,,0.00,WUHU216DAVISVP2,2013-07-02 14:54:00,
2013-07-02 10:55:00,61.8,59.8,29.20,ENE,76,5.0,9.0,93,0.00,,,0.00,WUHU216DAVISVP2,2013-07-02 14:55:00,
2013-07-02 10:57:00,61.8,59.8,29.20,East,90,1.0,9.0,93,0.00,,,0.00,WUHU216DAVISVP2,2013-07-02 14:57:00,
2013-07-02 10:58:00,61.8,59.8,29.20,ENE,77,4.0,9.0,93,0.00,,,0.00,WUHU216DAVISVP2,2013-07-02 14:58:00,
2013-07-02 11:00:00,61.9,59.8,29.20,East,86,5.0,9.0,93,0.00,,,0.00,WUHU216DAVISVP2,2013-07-02 15:00:00,
2013-07-02 11:02:00,61.9,59.8,29.20,ENE,75,2.0,9.0,93,0.00,,,0.00,WUHU216DAVISVP2,2013-07-02 15:02:00,
2013-07-02 11:03:00,61.9,59.8,29.20,ENE,75,4.0,9.0,93,0.00,,,0.00,WUHU216DAVISVP2,2013-07-02 15:03:00,
2013-07-02 11:04:00,61.9,59.8,29.20,ENE,75,3.0,9.0,93,0.00,,,0.00,WUHU216DAVISVP2,2013-07-02 15:04:00,
2013-07-02 11:05:00,62.0,59.9,29.20,East,85,5.0,9.0,93,0.00,,,0.00,WUHU216DAVISVP2,2013-07-02 15:05:00,
2013-07-02 11:07:00,62.0,59.9,29.20,East,93,4.0,9.0,93,0.00,,,0.00,WUHU216DAVISVP2,2013-07-02 15:07:00,
2013-07-02 11:08:00,62.0,59.9,29.20,ENE,77,5.0,9.0,93,0.00,,,0.00,WUHU216DAVISVP2,2013-07-02 15:08:00,
2013-07-02 11:09:00,62.0,59.9,29.20,ENE,76,5.0,9.0,93,0.00,,,0.00,WUHU216DAVISVP2,2013-07-02 15:09:00,
2013-07-02 11:10:00,62.0,59.9,29.20,ENE,76,4.0,8.0,93,0.00,,,0.00,WUHU216DAVISVP2,2013-07-02 15:10:00,
2013-07-02 11:11:00,62.1,60.0,29.20,ENE,64,5.0,8.0,93,0.00,,,0.00,WUHU216DAVISVP2,2013-07-02 15:11:00,
2013-07-02 11:12:00,62.1,60.0,29.20,ENE,60,8.0,8.0,93,0.00,,,0.00,WUHU216DAVISVP2,2013-07-02 15:12:00,
2013-07-02 11:14:00,62.1,60.0,29.20,ENE,71,6.0,8.0,93,0.00,,,0.00,WUHU216DAVISVP2,2013-07-02 15:14:00,
2013-07-02 11:15:00,62.1,60.1,29.20,ENE,71,6.0,8.0,93,0.00,,,0.00,WUHU216DAVISVP2,2013-07-02 15:15:00,
2013-07-02 11:16:00,62.1,60.1,29.20,ENE,75,4.0,8.0,93,0.00,,,0.00,WUHU216DAVISVP2,2013-07-02 15:16:00,
2013-07-02 11:18:00,62.1,60.1,29.20,East,79,3.0,8.0,93,0.00,,,0.00,WUHU216DAVISVP2,2013-07-02 15:18:00,
2013-07-02 11:19:00,62.2,60.2,29.20,NE,55,5.0,8.0,93,0.00,,,0.00,WUHU216DAVISVP2,2013-07-02 15:19:00,
2013-07-02 11:20:00,62.2,60.2,29.20,ENE,60,8.0,10.0,93,0.00,,,0.00,WUHU216DAVISVP2,2013-07-02 15:20:00,
2013-07-02 11:21:00,62.2,60.2,29.20,ENE,58,7.0,10.0,93,0.00,,,0.00,WUHU216DAVISVP2,2013-07-02 15:21:00,
2013-07-02 11:23:00,62.2,60.2,29.20,ENE,68,5.0,10.0,93,0.00,,,0.00,WUHU216DAVISVP2,2013-07-02 15:23:00,
2013-07-02 11:24:00,62.2,60.2,29.20,ENE,58,5.0,10.0,93,0.00,,,0.00,WUHU216DAVISVP2,2013-07-02 15:24:00,
2013-07-02 11:26:00,62.3,60.2,29.20,ENE,62,7.0,10.0,93,0.00,,,0.00,WUHU216DAVISVP2,2013-07-02 15:26:00,
2013-07-02 11:27:00,62.2,60.1,29.20,ESE,111,9.0,11.0,93,0.00,,,0.00,WUHU216DAVISVP2,2013-07-02 15:27:00,
2013-07-02 11:28:00,62.2,60.1,29.20,ENE,71,7.0,11.0,93,0.00,,,0.00,WUHU216DAVISVP2,2013-07-02 15:28:00,
2013-07-02 11:29:00,62.2,60.1,29.20,ENE,78,6.0,11.0,93,0.00,,,0.00,WUHU216DAVISVP2,2013-07-02 15:29:00,
2013-07-02 11:31:00,62.2,60.1,29.20,East,98,6.0,11.0,93,0.00,,,0.00,WUHU216DAVISVP2,2013-07-02 15:31:00,
2013-07-02 11:32:00,62.2,60.1,29.20,East,89,4.0,11.0,93,0.00,,,0.00,WUHU216DAVISVP2,2013-07-02 15:32:00,
2013-07-02 11:33:00,62.2,60.1,29.20,ENE,76,6.0,11.0,93,0.00,,,0.00,WUHU216DAVISVP2,2013-07-02 15:33:00,
2013-07-02 11:34:00,62.2,60.1,29.20,East,80,5.0,11.0,93,0.00,,,0.00,WUHU216DAVISVP2,2013-07-02 15:34:00,
2013-07-02 11:36:00,62.2,60.1,29.20,East,99,5.0,11.0,93,0.00,,,0.00,WUHU216DAVISVP2,2013-07-02 15:36:00,
2013-07-02 11:37:00,62.2,60.1,29.20,ENE,76,5.0,11.0,93,0.00,,,0.00,WUHU216DAVISVP2,2013-07-02 15:37:00,
2013-07-02 11:38:00,62.3,60.2,29.20,East,88,4.0,11.0,93,0.00,,,0.00,WUHU216DAVISVP2,2013-07-02 15:38:00,
2013-07-02 11:39:00,62.4,60.3,29.20,East,99,7.0,11.0,93,0.00,,,0.00,WUHU216DAVISVP2,2013-07-02 15:39:00,
2013-07-02 11:41:00,62.4,60.3,29.20,ENE,64,5.0,11.0,93,0.00,,,0.00,WUHU216DAVISVP2,2013-07-02 15:41:00,
2013-07-02 11:42:00,62.4,60.3,29.20,East,87,5.0,11.0,93,0.00,,,0.00,WUHU216DAVISVP2,2013-07-02 15:42:00,
2013-07-02 11:43:00,62.4,60.3,29.20,ENE,75,2.0,11.0,93,0.00,,,0.00,WUHU216DAVISVP2,2013-07-02 15:43:00,
2013-07-02 11:44:00,62.4,60.3,29.20,ENE,60,7.0,11.0,93,0.00,,,0.00,WUHU216DAVISVP2,2013-07-02 15:44:00,
2013-07-02 11:46:00,62.5,60.4,29.20,ENE,72,6.0,10.0,93,0.00,,,0.00,WUHU216DAVISVP2,2013-07-02 15:46:00,
2013-07-02 11:47:00,62.6,60.8,29.20,ENE,68,7.0,10.0,94,0.00,,,0.00,WUHU216DAVISVP2,2013-07-02 15:47:00,
2013-07-02 11:49:00,62.6,60.8,29.20,East,100,5.0,10.0,94,0.00,,,0.00,WUHU216DAVISVP2,2013-07-02 15:49:00,
2013-07-02 11:50:00,62.7,60.9,29.20,ESE,114,5.0,10.0,94,0.00,,,0.00,WUHU216DAVISVP2,2013-07-02 15:50:00,
2013-07-02 11:51:00,62.7,60.9,29.20,ENE,70,6.0,10.0,94,0.00,,,0.00,WUHU216DAVISVP2,2013-07-02 15:51:00,
2013-07-02 11:52:00,62.8,61.0,29.20,East,96,5.0,9.0,94,0.00,,,0.00,WUHU216DAVISVP2,2013-07-02 15:52:00,
2013-07-02 11:54:00,62.9,61.1,29.20,East,100,7.0,9.0,94,0.00,,,0.00,WUHU216DAVISVP2,2013-07-02 15:54:00,
2013-07-02 11:55:00,62.8,60.7,29.20,ESE,111,5.0,9.0,93,0.00,,,0.00,WUHU216DAVISVP2,2013-07-02 15:55:00,
2013-07-02 11:57:00,62.9,60.8,29.20,ENE,61,8.0,9.0,93,0.00,,,0.00,WUHU216DAVISVP2,2013-07-02 15:57:00,
2013-07-02 11:59:00,62.9,60.8,29.20,ENE,73,6.0,9.0,93,0.00,,,0.00,WUHU216DAVISVP2,2013-07-02 15:59:00,
2013-07-02 12:00:00,62.9,60.8,29.20,ENE,59,7.0,9.0,93,0.00,,,0.00,WUHU216DAVISVP2,2013-07-02 16:00:00,
2013-07-02 12:02:00,62.9,60.8,29.20,ENE,70,6.0,11.0,93,0.00,,,0.00,WUHU216DAVISVP2,2013-07-02 16:02:00,
2013-07-02 12:04:00,63.0,60.9,29.20,ENE,72,6.0,11.0,93,0.00,,,0.00,WUHU216DAVISVP2,2013-07-02 16:04:00,
2013-07-02 12:05:00,63.0,60.9,29.20,East,82,2.0,11.0,93,0.00,,,0.00,WUHU216DAVISVP2,2013-07-02 16:05:00,
2013-07-02 12:07:00,63.1,61.0,29.20,ENE,70,2.0,11.0,93,0.00,,,0.00,WUHU216DAVISVP2,2013-07-02 16:07:00,
2013-07-02 12:08:00,63.1,61.0,29.20,East,83,5.0,11.0,93,0.00,,,0.00,WUHU216DAVISVP2,2013-07-02 16:08:00,
2013-07-02 12:09:00,63.0,60.9,29.20,ESE,102,8.0,11.0,93,0.00,,,0.00,WUHU216DAVISVP2,2013-07-02 16:09:00,
2013-07-02 12:10:00,63.0,60.9,29.20,East,93,7.0,11.0,93,0.00,,,0.00,WUHU216DAVISVP2,2013-07-02 16:10:00,
2013-07-02 12:11:00,62.9,60.8,29.20,ESE,108,6.0,11.0,93,0.00,,,0.00,WUHU216DAVISVP2,2013-07-02 16:11:00,
2013-07-02 12:12:00,63.0,60.9,29.20,East,93,9.0,11.0,93,0.00,,,0.00,WUHU216DAVISVP2,2013-07-02 16:12:00,
2013-07-02 12:13:00,62.9,60.8,29.20,East,93,6.0,11.0,93,0.00,,,0.00,WUHU216DAVISVP2,2013-07-02 16:13:00,
2013-07-02 12:14:00,62.9,60.8,29.20,ESE,108,7.0,11.0,93,0.00,,,0.00,WUHU216DAVISVP2,2013-07-02 16:14:00,
2013-07-02 12:15:00,62.9,60.8,29.20,ESE,113,8.0,11.0,93,0.00,,,0.00,WUHU216DAVISVP2,2013-07-02 16:15:00,
2013-07-02 12:16:00,62.8,60.7,29.20,ESE,111,9.0,11.0,93,0.00,,,0.00,WUHU216DAVISVP2,2013-07-02 16:16:00,
2013-07-02 12:17:00,62.8,60.7,29.20,ESE,112,6.0,11.0,93,0.00,,,0.00,WUHU216DAVISVP2,2013-07-02 16:17:00,
2013-07-02 12:18:00,62.8,60.7,29.20,East,97,7.0,11.0,93,0.00,,,0.00,WUHU216DAVISVP2,2013-07-02 16:18:00,
2013-07-02 12:20:00,62.8,61.0,29.20,ENE,77,5.0,10.0,94,0.00,,,0.00,WUHU216DAVISVP2,2013-07-02 16:20:00,
2013-07-02 12:22:00,62.9,61.1,29.20,ESE,118,8.0,10.0,94,0.00,,,0.00,WUHU216DAVISVP2,2013-07-02 16:22:00,
2013-07-02 12:23:00,62.8,61.0,29.20,ESE,104,6.0,10.0,94,0.00,,,0.00,WUHU216DAVISVP2,2013-07-02 16:23:00,
2013-07-02 12:25:00,62.8,61.0,29.20,East,92,6.0,10.0,94,0.00,,,0.00,WUHU216DAVISVP2,2013-07-02 16:25:00,
2013-07-02 12:26:00,62.9,61.1,29.20,ESE,116,1.0,10.0,94,0.00,,,0.00,WUHU216DAVISVP2,2013-07-02 16:26:00,
2013-07-02 12:27:00,63.0,61.2,29.20,ESE,110,5.0,10.0,94,0.00,,,0.00,WUHU216DAVISVP2,2013-07-02 16:27:00,
2013-07-02 12:28:00,63.0,61.2,29.20,ESE,110,5.0,10.0,94,0.00,,,0.00,WUHU216DAVISVP2,2013-07-02 16:28:00,
2013-07-02 12:29:00,63.1,61.3,29.20,ESE,103,6.0,10.0,94,0.00,,,0.00,WUHU216DAVISVP2,2013-07-02 16:29:00,
2013-07-02 12:30:00,63.1,61.3,29.20,East,100,7.0,10.0,94,0.00,,,0.00,WUHU216DAVISVP2,2013-07-02 16:30:00,
2013-07-02 12:31:00,63.2,61.4,29.20,ENE,66,8.0,10.0,94,0.00,,,0.00,WUHU216DAVISVP2,2013-07-02 16:31:00,
2013-07-02 12:33:00,63.2,61.4,29.20,East,92,4.0,10.0,94,0.00,,,0.00,WUHU216DAVISVP2,2013-07-02 16:33:00,
2013-07-02 12:34:00,63.3,61.5,29.20,East,87,4.0,10.0,94,0.00,,,0.00,WUHU216DAVISVP2,2013-07-02 16:34:00,
2013-07-02 12:35:00,63.4,61.6,29.20,ENE,62,6.0,10.0,94,0.00,,,0.00,WUHU216DAVISVP2,2013-07-02 16:35:00,
2013-07-02 12:37:00,63.5,61.7,29.20,East,93,5.0,10.0,94,0.00,,,0.00,WUHU216DAVISVP2,2013-07-02 16:37:00,
2013-07-02 12:38:00,63.5,61.7,29.20,East,81,5.0,10.0,94,0.00,,,0.00,WUHU216DAVISVP2,2013-07-02 16:38:00,
2013-07-02 12:39:00,63.5,61.7,29.20,East,95,7.0,10.0,94,0.00,,,0.00,WUHU216DAVISVP2,2013-07-02 16:39:00,
2013-07-02 12:40:00,63.5,61.7,29.20,East,83,3.0,10.0,94,0.00,,,0.00,WUHU216DAVISVP2,2013-07-02 16:40:00,
2013-07-02 12:42:00,63.6,61.8,29.20,East,89,5.0,10.0,94,0.00,,,0.00,WUHU216DAVISVP2,2013-07-02 16:42:00,
2013-07-02 12:43:00,63.6,61.8,29.20,ENE,73,7.0,10.0,94,0.00,,,0.00,WUHU216DAVISVP2,2013-07-02 16:43:00,
2013-07-02 12:44:00,63.7,61.9,29.20,ENE,63,4.0,10.0,94,0.00,,,0.00,WUHU216DAVISVP2,2013-07-02 16:44:00,
2013-07-02 12:45:00,63.7,61.9,29.20,East,84,5.0,10.0,94,0.00,,,0.00,WUHU216DAVISVP2,2013-07-02 16:45:00,
2013-07-02 12:47:00,63.8,62.0,29.20,ENE,70,6.0,10.0,94,0.00,,,0.00,WUHU216DAVISVP2,2013-07-02 16:47:00,
2013-07-02 12:48:00,63.9,62.1,29.20,East,79,6.0,10.0,94,0.00,,,0.00,WUHU216DAVISVP2,2013-07-02 16:48:00,
2013-07-02 12:49:00,63.9,62.1,29.20,East,79,6.0,10.0,94,0.00,,,0.00,WUHU216DAVISVP2,2013-07-02 16:49:00,
2013-07-02 12:50:00,64.0,62.2,29.20,ENE,66,4.0,10.0,94,0.00,,,0.00,WUHU216DAVISVP2,2013-07-02 16:50:00,
2013-07-02 12:52:00,64.1,62.3,29.20,ENE,64,8.0,10.0,94,0.00,,,0.00,WUHU216DAVISVP2,2013-07-02 16:52:00,
2013-07-02 12:53:00,64.1,62.3,29.20,ENE,75,7.0,10.0,94,0.00,,,0.00,WUHU216DAVISVP2,2013-07-02 16:53:00,
2013-07-02 12:54:00,64.1,62.3,29.20,ENE,67,7.0,10.0,94,0.00,,,0.00,WUHU216DAVISVP2,2013-07-02 16:54:00,
2013-07-02 12:55:00,64.2,62.4,29.20,East,96,7.0,9.0,94,0.00,,,0.00,WUHU216DAVISVP2,2013-07-02 16:55:00,
2013-07-02 12:57:00,64.2,62.1,29.20,ENE,62,4.0,9.0,93,0.00,,,0.00,WUHU216DAVISVP2,2013-07-02 16:57:00,
2013-07-02 12:59:00,64.3,62.5,29.20,ENE,68,5.0,9.0,94,0.00,,,0.00,WUHU216DAVISVP2,2013-07-02 16:59:00,
2013-07-02 13:00:00,64.4,62.6,29.20,ENE,67,6.0,9.0,94,0.00,,,0.00,WUHU216DAVISVP2,2013-07-02 17:00:00,
2013-07-02 13:03:00,64.5,62.4,29.20,East,95,8.0,10.0,93,0.00,,,0.00,WUHU216DAVISVP2,2013-07-02 17:03:00,
2013-07-02 13:04:00,64.5,62.4,29.20,East,100,7.0,10.0,93,0.00,,,0.00,WUHU216DAVISVP2,2013-07-02 17:04:00,
2013-07-02 13:05:00,64.5,62.4,29.20,ESE,112,4.0,10.0,93,0.00,,,0.00,WUHU216DAVISVP2,2013-07-02 17:05:00,
2013-07-02 13:06:00,64.5,62.4,29.20,ESE,120,5.0,10.0,93,0.00,,,0.00,WUHU216DAVISVP2,2013-07-02 17:06:00,
2013-07-02 13:08:00,64.5,62.4,29.20,ESE,118,2.0,10.0,93,0.00,,,0.00,WUHU216DAVISVP2,2013-07-02 17:08:00,
2013-07-02 13:09:00,64.6,62.5,29.20,SE,126,6.0,10.0,93,0.00,,,0.00,WUHU216DAVISVP2,2013-07-02 17:09:00,
2013-07-02 13:11:00,64.7,62.6,29.20,East,89,4.0,10.0,93,0.00,,,0.00,WUHU216DAVISVP2,2013-07-02 17:11:00,
2013-07-02 13:13:00,64.8,62.7,29.20,East,95,9.0,10.0,93,0.00,,,0.00,WUHU216DAVISVP2,2013-07-02 17:13:00,
2013-07-02 13:15:00,64.8,62.7,29.20,East,84,1.0,10.0,93,0.00,,,0.00,WUHU216DAVISVP2,2013-07-02 17:15:00,
2013-07-02 13:16:00,64.9,62.8,29.20,ESE,102,4.0,10.0,93,0.00,,,0.00,WUHU216DAVISVP2,2013-07-02 17:16:00,
2013-07-02 13:18:00,65.0,62.9,29.20,ENE,73,7.0,10.0,93,0.00,,,0.00,WUHU216DAVISVP2,2013-07-02 17:18:00,
2013-07-02 13:20:00,65.0,62.9,29.20,East,80,3.0,9.0,93,0.00,,,0.00,WUHU216DAVISVP2,2013-07-02 17:20:00,
2013-07-02 13:21:00,65.1,63.0,29.20,East,92,5.0,9.0,93,0.00,,,0.00,WUHU216DAVISVP2,2013-07-02 17:21:00,
2013-07-02 13:23:00,65.3,63.2,29.20,East,95,4.0,9.0,93,0.00,,,0.00,WUHU216DAVISVP2,2013-07-02 17:23:00,
2013-07-02 13:25:00,65.4,63.3,29.20,ENE,72,2.0,9.0,93,0.00,,,0.00,WUHU216DAVISVP2,2013-07-02 17:25:00,
2013-07-02 13:26:00,65.4,63.3,29.20,ESE,118,7.0,9.0,93,0.00,,,0.00,WUHU216DAVISVP2,2013-07-02 17:26:00,
2013-07-02 13:27:00,65.4,63.3,29.20,ESE,120,2.0,9.0,93,0.00,,,0.00,WUHU216DAVISVP2,2013-07-02 17:27:00,
2013-07-02 13:28:00,65.5,63.4,29.20,East,85,4.0,9.0,93,0.00,,,0.00,WUHU216DAVISVP2,2013-07-02 17:28:00,
2013-07-02 13:30:00,65.5,63.1,29.20,East,85,5.0,9.0,92,0.00,,,0.00,WUHU216DAVISVP2,2013-07-02 17:30:00,
2013-07-02 13:31:00,65.5,63.1,29.20,ENE,73,2.0,9.0,92,0.00,,,0.00,WUHU216DAVISVP2,2013-07-02 17:31:00,
2013-07-02 13:32:00,65.5,63.1,29.20,East,92,5.0,9.0,92,0.00,,,0.00,WUHU216DAVISVP2,2013-07-02 17:32:00,
2013-07-02 13:34:00,65.6,63.2,29.20,East,83,3.0,8.0,92,0.00,,,0.00,WUHU216DAVISVP2,2013-07-02 17:34:00,
2013-07-02 13:35:00,65.6,63.2,29.20,East,94,4.0,8.0,92,0.00,,,0.00,WUHU216DAVISVP2,2013-07-02 17:35:00,
2013-07-02 13:36:00,65.6,63.2,29.20,East,96,4.0,8.0,92,0.00,,,0.00,WUHU216DAVISVP2,2013-07-02 17:36:00,
2013-07-02 13:37:00,65.6,63.2,29.20,East,95,1.0,8.0,92,0.00,,,0.00,WUHU216DAVISVP2,2013-07-02 17:37:00,
2013-07-02 13:39:00,65.7,63.3,29.20,East,86,2.0,8.0,92,0.00,,,0.00,WUHU216DAVISVP2,2013-07-02 17:39:00,
2013-07-02 13:40:00,65.7,63.3,29.20,ESE,102,6.0,8.0,92,0.00,,,0.00,WUHU216DAVISVP2,2013-07-02 17:40:00,
2013-07-02 13:41:00,65.7,63.3,29.20,ENE,58,6.0,8.0,92,0.00,,,0.00,WUHU216DAVISVP2,2013-07-02 17:41:00,
2013-07-02 13:42:00,65.8,63.4,29.20,ENE,66,5.0,9.0,92,0.00,,,0.00,WUHU216DAVISVP2,2013-07-02 17:42:00,
2013-07-02 13:43:00,65.8,63.4,29.20,ENE,74,2.0,9.0,92,0.00,,,0.00,WUHU216DAVISVP2,2013-07-02 17:43:00,
2013-07-02 13:44:00,65.9,63.5,29.20,East,84,2.0,9.0,92,0.00,,,0.00,WUHU216DAVISVP2,2013-07-02 17:44:00,
2013-07-02 13:45:00,65.9,63.5,29.20,East,85,2.0,9.0,92,0.00,,,0.00,WUHU216DAVISVP2,2013-07-02 17:45:00,
2013-07-02 13:46:00,66.0,63.6,29.20,East,94,4.0,9.0,92,0.00,,,0.00,WUHU216DAVISVP2,2013-07-02 17:46:00,
2013-07-02 13:47:00,66.1,63.7,29.20,East,97,2.0,9.0,92,0.00,,,0.00,WUHU216DAVISVP2,2013-07-02 17:47:00,
2013-07-02 13:48:00,66.1,63.7,29.20,ESE,122,3.0,9.0,92,0.00,,,0.00,WUHU216DAVISVP2,2013-07-02 17:48:00,
2013-07-02 13:49:00,66.1,63.7,29.20,East,89,1.0,9.0,92,0.00,,,0.00,WUHU216DAVISVP2,2013-07-02 17:49:00,
2013-07-02 13:50:00,66.2,63.8,29.20,ENE,77,2.0,9.0,92,0.00,,,0.00,WUHU216DAVISVP2,2013-07-02 17:50:00,
2013-07-02 13:51:00,66.2,63.8,29.20,ESE,102,5.0,9.0,92,0.00,,,0.00,WUHU216DAVISVP2,2013-07-02 17:51:00,
2013-07-02 13:52:00,66.2,63.8,29.20,ESE,104,6.0,9.0,92,0.00,,,0.00,WUHU216DAVISVP2,2013-07-02 17:52:00,
2013-07-02 13:53:00,66.2,63.5,29.20,East,94,5.0,9.0,91,0.00,,,0.00,WUHU216DAVISVP2,2013-07-02 17:53:00,
2013-07-02 13:54:00,66.2,63.5,29.20,ESE,116,5.0,9.0,91,0.00,,,0.00,WUHU216DAVISVP2,2013-07-02 17:54:00,
2013-07-02 13:55:00,66.2,63.5,29.20,ESE,104,6.0,9.0,91,0.00,,,0.00,WUHU216DAVISVP2,2013-07-02 17:55:00,
2013-07-02 13:56:00,66.2,63.5,29.20,ESE,111,5.0,9.0,91,0.00,,,0.00,WUHU216DAVISVP2,2013-07-02 17:56:00,
2013-07-02 13:57:00,66.2,63.5,29.20,ESE,111,2.0,9.0,91,0.00,,,0.00,WUHU216DAVISVP2,2013-07-02 17:57:00,
2013-07-02 13:59:00,66.2,63.5,29.20,ESE,111,2.0,9.0,91,0.00,,,0.00,WUHU216DAVISVP2,2013-07-02 17:59:00,
2013-07-02 14:01:00,66.3,63.6,29.20,East,93,5.0,8.0,91,0.00,,,0.00,WUHU216DAVISVP2,2013-07-02 18:01:00,
2013-07-02 14:02:00,66.3,63.6,29.20,East,93,5.0,8.0,91,0.00,,,0.00,WUHU216DAVISVP2,2013-07-02 18:02:00,
2013-07-02 14:04:00,66.3,63.6,29.19,SE,124,4.0,8.0,91,0.00,,,0.00,WUHU216DAVISVP2,2013-07-02 18:04:00,
2013-07-02 14:05:00,66.2,63.5,29.19,ESE,120,4.0,8.0,91,0.00,,,0.00,WUHU216DAVISVP2,2013-07-02 18:05:00,
2013-07-02 14:06:00,66.3,63.6,29.19,East,95,5.0,8.0,91,0.00,,,0.00,WUHU216DAVISVP2,2013-07-02 18:06:00,
2013-07-02 14:07:00,66.3,63.6,29.19,East,96,4.0,8.0,91,0.00,,,0.00,WUHU216DAVISVP2,2013-07-02 18:07:00,
2013-07-02 14:09:00,66.5,64.1,29.19,ESE,121,4.0,8.0,92,0.00,,,0.00,WUHU216DAVISVP2,2013-07-02 18:09:00,
2013-07-02 14:10:00,66.5,64.1,29.19,ESE,112,4.0,8.0,92,0.00,,,0.00,WUHU216DAVISVP2,2013-07-02 18:10:00,
2013-07-02 14:11:00,66.5,63.8,29.19,SE,127,4.0,8.0,91,0.00,,,0.00,WUHU216DAVISVP2,2013-07-02 18:11:00,
2013-07-02 14:12:00,66.5,63.8,29.20,ENE,70,3.0,8.0,91,0.00,,,0.00,WUHU216DAVISVP2,2013-07-02 18:12:00,
2013-07-02 14:13:00,66.5,63.8,29.20,ESE,121,2.0,8.0,91,0.00,,,0.00,WUHU216DAVISVP2,2013-07-02 18:13:00,
2013-07-02 14:14:00,66.5,63.8,29.20,SE,136,3.0,8.0,91,0.00,,,0.00,WUHU216DAVISVP2,2013-07-02 18:14:00,
2013-07-02 14:15:00,66.5,63.8,29.20,ESE,117,2.0,8.0,91,0.00,,,0.00,WUHU216DAVISVP2,2013-07-02 18:15:00,
2013-07-02 14:16:00,66.5,63.8,29.20,ESE,117,2.0,8.0,91,0.00,,,0.00,WUHU216DAVISVP2,2013-07-02 18:16:00,
2013-07-02 14:18:00,66.6,63.9,29.20,ESE,118,3.0,8.0,91,0.00,,,0.00,WUHU216DAVISVP2,2013-07-02 18:18:00,
2013-07-02 14:19:00,66.5,63.8,29.20,ESE,118,1.0,8.0,91,0.00,,,0.00,WUHU216DAVISVP2,2013-07-02 18:19:00,
2013-07-02 14:21:00,66.6,63.9,29.20,ENE,77,5.0,7.0,91,0.00,,,0.00,WUHU216DAVISVP2,2013-07-02 18:21:00,
2013-07-02 14:23:00,66.6,63.9,29.19,East,83,5.0,7.0,91,0.00,,,0.00,WUHU216DAVISVP2,2013-07-02 18:23:00,
2013-07-02 14:24:00,66.6,63.9,29.19,East,97,5.0,7.0,91,0.00,,,0.00,WUHU216DAVISVP2,2013-07-02 18:24:00,
2013-07-02 14:26:00,66.7,64.0,29.20,East,94,6.0,7.0,91,0.00,,,0.00,WUHU216DAVISVP2,2013-07-02 18:26:00,
2013-07-02 14:27:00,66.7,64.0,29.20,East,101,5.0,7.0,91,0.00,,,0.00,WUHU216DAVISVP2,2013-07-02 18:27:00,
2013-07-02 14:28:00,66.7,64.0,29.20,ENE,68,2.0,7.0,91,0.00,,,0.00,WUHU216DAVISVP2,2013-07-02 18:28:00,
2013-07-02 14:29:00,66.7,64.0,29.20,East,83,4.0,7.0,91,0.00,,,0.00,WUHU216DAVISVP2,2013-07-02 18:29:00,
2013-07-02 14:30:00,66.8,64.1,29.19,East,92,5.0,7.0,91,0.00,,,0.00,WUHU216DAVISVP2,2013-07-02 18:30:00,
2013-07-02 14:31:00,66.8,64.1,29.19,ESE,103,2.0,7.0,91,0.00,,,0.00,WUHU216DAVISVP2,2013-07-02 18:31:00,
2013-07-02 14:32:00,66.7,64.0,29.19,ESE,103,0.0,7.0,91,0.00,,,0.00,WUHU216DAVISVP2,2013-07-02 18:32:00,
2013-07-02 14:33:00,66.8,64.1,29.19,ESE,103,0.0,7.0,91,0.00,,,0.00,WUHU216DAVISVP2,2013-07-02 18:33:00,
2013-07-02 14:34:00,66.8,64.1,29.19,East,80,4.0,7.0,91,0.00,,,0.00,WUHU216DAVISVP2,2013-07-02 18:34:00,
2013-07-02 14:35:00,66.9,64.2,29.19,ESE,102,5.0,7.0,91,0.00,,,0.00,WUHU216DAVISVP2,2013-07-02 18:35:00,
2013-07-02 14:36:00,66.8,63.8,29.19,East,101,4.0,7.0,90,0.00,,,0.00,WUHU216DAVISVP2,2013-07-02 18:36:00,
2013-07-02 14:37:00,66.8,63.8,29.19,East,95,4.0,7.0,90,0.00,,,0.00,WUHU216DAVISVP2,2013-07-02 18:37:00,
2013-07-02 14:38:00,67.0,64.3,29.19,East,81,3.0,7.0,91,0.00,,,0.00,WUHU216DAVISVP2,2013-07-02 18:38:00,
2013-07-02 14:39:00,67.0,64.3,29.19,East,86,4.0,7.0,91,0.00,,,0.00,WUHU216DAVISVP2,2013-07-02 18:39:00,
2013-07-02 14:40:00,67.0,64.3,29.19,East,80,4.0,7.0,91,0.00,,,0.00,WUHU216DAVISVP2,2013-07-02 18:40:00,
2013-07-02 14:42:00,67.1,64.4,29.19,East,79,2.0,7.0,91,0.00,,,0.00,WUHU216DAVISVP2,2013-07-02 18:42:00,
2013-07-02 14:44:00,67.1,64.4,29.19,ESE,114,5.0,7.0,91,0.00,,,0.00,WUHU216DAVISVP2,2013-07-02 18:44:00,
2013-07-02 14:45:00,67.2,64.5,29.19,East,96,3.0,7.0,91,0.00,,,0.00,WUHU216DAVISVP2,2013-07-02 18:45:00,
2013-07-02 14:47:00,67.2,64.5,29.19,East,91,2.0,7.0,91,0.00,,,0.00,WUHU216DAVISVP2,2013-07-02 18:47:00,
2013-07-02 14:49:00,67.3,64.2,29.19,ESE,105,4.0,7.0,90,0.00,,,0.00,WUHU216DAVISVP2,2013-07-02 18:49:00,
2013-07-02 14:50:00,67.3,64.2,29.19,ESE,106,5.0,7.0,90,0.00,,,0.00,WUHU216DAVISVP2,2013-07-02 18:50:00,
2013-07-02 14:52:00,67.3,64.2,29.19,ENE,58,2.0,7.0,90,0.00,,,0.00,WUHU216DAVISVP2,2013-07-02 18:52:00,
2013-07-02 14:54:00,67.5,64.4,29.19,NNE,17,5.0,7.0,90,0.00,,,0.00,WUHU216DAVISVP2,2013-07-02 18:54:00,
2013-07-02 14:55:00,67.6,64.5,29.19,East,81,3.0,7.0,90,0.00,,,0.00,WUHU216DAVISVP2,2013-07-02 18:55:00,
2013-07-02 14:57:00,67.7,64.6,29.19,ENE,76,4.0,7.0,90,0.00,,,0.00,WUHU216DAVISVP2,2013-07-02 18:57:00,
2013-07-02 14:59:00,68.0,64.9,29.19,ENE,77,1.0,7.0,90,0.00,,,0.00,WUHU216DAVISVP2,2013-07-02 18:59:00,
2013-07-02 15:00:00,68.0,64.9,29.19,ENE,77,2.0,7.0,90,0.00,,,0.00,WUHU216DAVISVP2,2013-07-02 19:00:00,
2013-07-02 15:02:00,68.3,65.2,29.19,NE,56,6.0,7.0,90,0.00,,,0.00,WUHU216DAVISVP2,2013-07-02 19:02:00,
2013-07-02 15:05:00,68.5,65.1,29.19,NE,56,6.0,8.0,89,0.00,,,0.00,WUHU216DAVISVP2,2013-07-02 19:05:00,
2013-07-02 15:07:00,68.6,64.9,29.18,ENE,61,5.0,8.0,88,0.00,,,0.00,WUHU216DAVISVP2,2013-07-02 19:07:00,
2013-07-02 15:08:00,68.7,65.0,29.18,ENE,61,7.0,8.0,88,0.00,,,0.00,WUHU216DAVISVP2,2013-07-02 19:08:00,
2013-07-02 15:10:00,68.7,65.0,29.18,NNE,28,5.0,9.0,88,0.00,,,0.00,WUHU216DAVISVP2,2013-07-02 19:10:00,
2013-07-02 15:11:00,68.7,65.0,29.18,NNE,12,5.0,9.0,88,0.00,,,0.00,WUHU216DAVISVP2,2013-07-02 19:11:00,
2013-07-02 15:12:00,68.8,65.1,29.19,NE,35,6.0,9.0,88,0.00,,,0.00,WUHU216DAVISVP2,2013-07-02 19:12:00,
2013-07-02 15:13:00,68.8,65.1,29.19,NE,38,6.0,9.0,88,0.00,,,0.00,WUHU216DAVISVP2,2013-07-02 19:13:00,
2013-07-02 15:15:00,68.8,65.1,29.19,NNE,26,5.0,9.0,88,0.00,,,0.00,WUHU216DAVISVP2,2013-07-02 19:15:00,
2013-07-02 15:16:00,68.8,65.1,29.19,NNE,26,4.0,9.0,88,0.00,,,0.00,WUHU216DAVISVP2,2013-07-02 19:16:00,
2013-07-02 15:17:00,68.8,65.1,29.18,North,354,6.0,9.0,88,0.00,,,0.00,WUHU216DAVISVP2,2013-07-02 19:17:00,
2013-07-02 15:18:00,68.8,65.1,29.18,North,354,5.0,9.0,88,0.00,,,0.00,WUHU216DAVISVP2,2013-07-02 19:18:00,
2013-07-02 15:20:00,68.9,65.2,29.18,North,11,3.0,9.0,88,0.00,,,0.00,WUHU216DAVISVP2,2013-07-02 19:20:00,
2013-07-02 15:22:00,69.0,65.3,29.18,NNE,21,8.0,9.0,88,0.00,,,0.00,WUHU216DAVISVP2,2013-07-02 19:22:00,
2013-07-02 15:23:00,69.0,65.3,29.18,NNE,29,7.0,9.0,88,0.00,,,0.00,WUHU216DAVISVP2,2013-07-02 19:23:00,
2013-07-02 15:24:00,69.0,65.3,29.18,NE,35,7.0,9.0,88,0.00,,,0.00,WUHU216DAVISVP2,2013-07-02 19:24:00,
2013-07-02 15:26:00,69.1,65.4,29.18,NNE,25,4.0,9.0,88,0.00,,,0.00,WUHU216DAVISVP2,2013-07-02 19:26:00,
2013-07-02 15:27:00,69.2,65.5,29.19,NE,35,5.0,9.0,88,0.00,,,0.00,WUHU216DAVISVP2,2013-07-02 19:27:00,
2013-07-02 15:28:00,69.2,65.5,29.19,NE,35,4.0,8.0,88,0.00,,,0.00,WUHU216DAVISVP2,2013-07-02 19:28:00,
2013-07-02 15:29:00,69.2,65.2,29.19,NNE,18,7.0,8.0,87,0.00,,,0.00,WUHU216DAVISVP2,2013-07-02 19:29:00,
2013-07-02 15:31:00,69.4,65.4,29.19,NE,36,1.0,8.0,87,0.00,,,0.00,WUHU216DAVISVP2,2013-07-02 19:31:00,
2013-07-02 15:32:00,69.4,65.4,29.19,NE,35,2.0,8.0,87,0.00,,,0.00,WUHU216DAVISVP2,2013-07-02 19:32:00,
2013-07-02 15:33:00,69.5,65.5,29.19,NE,36,0.0,8.0,87,0.00,,,0.00,WUHU216DAVISVP2,2013-07-02 19:33:00,
2013-07-02 15:34:00,69.7,65.7,29.19,NE,35,4.0,8.0,87,0.00,,,0.00,WUHU216DAVISVP2,2013-07-02 19:34:00,
2013-07-02 15:36:00,69.8,65.4,29.19,NE,40,7.0,9.0,86,0.00,,,0.00,WUHU216DAVISVP2,2013-07-02 19:36:00,
2013-07-02 15:37:00,69.8,65.4,29.19,NE,41,4.0,9.0,86,0.00,,,0.00,WUHU216DAVISVP2,2013-07-02 19:37:00,
2013-07-02 15:38:00,69.9,65.5,29.19,NE,41,2.0,9.0,86,0.00,,,0.00,WUHU216DAVISVP2,2013-07-02 19:38:00,
2013-07-02 15:39:00,69.9,65.5,29.19,NE,41,4.0,9.0,86,0.00,,,0.00,WUHU216DAVISVP2,2013-07-02 19:39:00,
2013-07-02 15:42:00,70.0,65.6,29.18,NE,41,2.0,9.0,86,0.00,,,0.00,WUHU216DAVISVP2,2013-07-02 19:42:00,
2013-07-02 15:43:00,70.0,65.6,29.18,NNW,346,6.0,9.0,86,0.00,,,0.00,WUHU216DAVISVP2,2013-07-02 19:43:00,
2013-07-02 15:44:00,69.9,65.5,29.18,NNE,19,4.0,9.0,86,0.00,,,0.00,WUHU216DAVISVP2,2013-07-02 19:44:00,
2013-07-02 15:47:00,70.0,65.6,29.18,ENE,61,7.0,9.0,86,0.00,,,0.00,WUHU216DAVISVP2,2013-07-02 19:47:00,
2013-07-02 15:48:00,70.1,65.7,29.18,ENE,70,6.0,9.0,86,0.00,,,0.00,WUHU216DAVISVP2,2013-07-02 19:48:00,
2013-07-02 15:49:00,70.1,66.1,29.18,ENE,73,4.0,9.0,87,0.00,,,0.00,WUHU216DAVISVP2,2013-07-02 19:49:00,
2013-07-02 15:52:00,70.2,65.8,29.18,ENE,66,6.0,9.0,86,0.00,,,0.00,WUHU216DAVISVP2,2013-07-02 19:52:00,
2013-07-02 15:53:00,70.2,65.8,29.18,ENE,66,6.0,9.0,86,0.00,,,0.00,WUHU216DAVISVP2,2013-07-02 19:53:00,
2013-07-02 15:54:00,70.3,65.9,29.18,ENE,73,4.0,9.0,86,0.00,,,0.00,WUHU216DAVISVP2,2013-07-02 19:54:00,
2013-07-02 15:58:00,70.7,66.0,29.18,NNE,31,6.0,9.0,85,0.00,,,0.00,WUHU216DAVISVP2,2013-07-02 19:58:00,
2013-07-02 15:59:00,70.7,66.0,29.18,NNE,32,4.0,9.0,85,0.00,,,0.00,WUHU216DAVISVP2,2013-07-02 19:59:00,
2013-07-02 16:03:00,70.7,66.0,29.17,NNE,25,5.0,9.0,85,0.00,,,0.00,WUHU216DAVISVP2,2013-07-02 20:03:00,
2013-07-02 16:04:00,70.7,65.7,29.18,NNE,27,6.0,9.0,84,0.00,,,0.00,WUHU216DAVISVP2,2013-07-02 20:04:00,
2013-07-02 16:08:00,71.1,66.7,29.17,NNE,21,5.0,8.0,86,0.00,,,0.00,WUHU216DAVISVP2,2013-07-02 20:08:00,
2013-07-02 16:09:00,71.4,66.7,29.17,NNE,13,7.0,8.0,85,0.00,,,0.00,WUHU216DAVISVP2,2013-07-02 20:09:00,
2013-07-02 16:13:00,71.7,66.6,29.17,NE,46,5.0,9.0,84,0.00,,,0.00,WUHU216DAVISVP2,2013-07-02 20:13:00,
2013-07-02 16:14:00,71.9,66.8,29.17,NE,35,7.0,9.0,84,0.00,,,0.00,WUHU216DAVISVP2,2013-07-02 20:14:00,
2013-07-02 16:18:00,72.0,66.9,29.17,NE,48,5.0,10.0,84,0.00,,,0.00,WUHU216DAVISVP2,2013-07-02 20:18:00,
2013-07-02 16:19:00,72.1,67.0,29.17,NE,48,8.0,10.0,84,0.00,,,0.00,WUHU216DAVISVP2,2013-07-02 20:19:00,
2013-07-02 16:20:00,72.1,66.7,29.17,NE,39,11.0,11.0,83,0.00,,,0.00,WUHU216DAVISVP2,2013-07-02 20:20:00,
2013-07-02 16:23:00,71.5,66.1,29.17,NE,37,8.0,11.0,83,0.00,,,0.00,WUHU216DAVISVP2,2013-07-02 20:23:00,
2013-07-02 16:24:00,71.4,66.4,29.17,NE,39,6.0,11.0,84,0.00,,,0.00,WUHU216DAVISVP2,2013-07-02 20:24:00,
2013-07-02 16:25:00,71.4,66.4,29.17,NE,51,7.0,11.0,84,0.00,,,0.00,WUHU216DAVISVP2,2013-07-02 20:25:00,
2013-07-02 16:28:00,71.7,67.0,29.17,ENE,66,5.0,11.0,85,0.00,,,0.00,WUHU216DAVISVP2,2013-07-02 20:28:00,
2013-07-02 16:29:00,71.9,67.2,29.17,NE,45,4.0,11.0,85,0.00,,,0.00,WUHU216DAVISVP2,2013-07-02 20:29:00,
2013-07-02 16:30:00,72.0,67.3,29.17,NE,49,4.0,11.0,85,0.00,,,0.00,WUHU216DAVISVP2,2013-07-02 20:30:00,
2013-07-02 16:33:00,72.3,67.2,29.17,NNE,14,6.0,11.0,84,0.00,,,0.00,WUHU216DAVISVP2,2013-07-02 20:33:00,
2013-07-02 16:34:00,72.2,67.1,29.17,NNE,27,5.0,11.0,84,0.00,,,0.00,WUHU216DAVISVP2,2013-07-02 20:34:00,
2013-07-02 16:35:00,72.2,67.1,29.17,ENE,57,7.0,11.0,84,0.00,,,0.00,WUHU216DAVISVP2,2013-07-02 20:35:00,
2013-07-02 16:36:00,72.2,67.1,29.17,NNE,29,6.0,11.0,84,0.00,,,0.00,WUHU216DAVISVP2,2013-07-02 20:36:00,
2013-07-02 16:38:00,72.2,66.8,29.17,NE,36,7.0,11.0,83,0.00,,,0.00,WUHU216DAVISVP2,2013-07-02 20:38:00,
2013-07-02 16:39:00,72.2,66.8,29.17,North,349,6.0,11.0,83,0.00,,,0.00,WUHU216DAVISVP2,2013-07-02 20:39:00,
2013-07-02 16:40:00,72.2,66.8,29.17,NNE,23,8.0,11.0,83,0.00,,,0.00,WUHU216DAVISVP2,2013-07-02 20:40:00,
2013-07-02 16:41:00,72.2,66.8,29.17,NE,38,6.0,11.0,83,0.00,,,0.00,WUHU216DAVISVP2,2013-07-02 20:41:00,
2013-07-02 16:43:00,72.4,67.0,29.17,NNE,32,9.0,11.0,83,0.00,,,0.00,WUHU216DAVISVP2,2013-07-02 20:43:00,
2013-07-02 16:44:00,72.5,66.8,29.17,NE,37,6.0,11.0,82,0.00,,,0.00,WUHU216DAVISVP2,2013-07-02 20:44:00,
2013-07-02 16:45:00,72.5,66.8,29.17,NNE,15,6.0,11.0,82,0.00,,,0.00,WUHU216DAVISVP2,2013-07-02 20:45:00,
2013-07-02 16:46:00,72.5,66.8,29.16,NNE,14,4.0,11.0,82,0.00,,,0.00,WUHU216DAVISVP2,2013-07-02 20:46:00,
2013-07-02 16:49:00,72.6,66.5,29.16,North,4,8.0,11.0,81,0.00,,,0.00,WUHU216DAVISVP2,2013-07-02 20:49:00,
2013-07-02 16:50:00,72.6,66.9,29.16,North,4,7.0,11.0,82,0.00,,,0.00,WUHU216DAVISVP2,2013-07-02 20:50:00,
2013-07-02 16:52:00,72.5,66.8,29.16,NE,40,9.0,11.0,82,0.00,,,0.00,WUHU216DAVISVP2,2013-07-02 20:52:00,
2013-07-02 16:54:00,72.5,67.0,29.16,North,11,8.0,11.0,83,0.00,,,0.00,WUHU216DAVISVP2,2013-07-02 20:54:00,
2013-07-02 16:55:00,72.5,67.0,29.16,NNE,12,6.0,11.0,83,0.00,,,0.00,WUHU216DAVISVP2,2013-07-02 20:55:00,
2013-07-02 16:56:00,72.5,67.0,29.16,North,354,7.0,11.0,83,0.00,,,0.00,WUHU216DAVISVP2,2013-07-02 20:56:00,
2013-07-02 16:57:00,72.6,67.5,29.16,NNE,29,5.0,11.0,84,0.00,,,0.00,WUHU216DAVISVP2,2013-07-02 20:57:00,
2013-07-02 17:00:00,73.0,67.5,29.17,ENE,72,7.0,11.0,83,0.00,,,0.00,WUHU216DAVISVP2,2013-07-02 21:00:00,
2013-07-02 17:01:00,73.0,67.2,29.16,ENE,64,6.0,11.0,82,0.00,,,0.00,WUHU216DAVISVP2,2013-07-02 21:01:00,
2013-07-02 17:02:00,73.3,67.5,29.17,NE,56,4.0,11.0,82,0.00,,,0.00,WUHU216DAVISVP2,2013-07-02 21:02:00,
2013-07-02 17:05:00,73.5,67.7,29.17,NE,42,4.0,11.0,82,0.00,,,0.00,WUHU216DAVISVP2,2013-07-02 21:05:00,
2013-07-02 17:06:00,73.6,67.8,29.17,NE,42,4.0,11.0,82,0.00,,,0.00,WUHU216DAVISVP2,2013-07-02 21:06:00,
2013-07-02 17:07:00,73.8,68.0,29.16,NE,38,9.0,11.0,82,0.00,,,0.00,WUHU216DAVISVP2,2013-07-02 21:07:00,
2013-07-02 17:10:00,73.8,67.2,29.16,NE,41,6.0,11.0,80,0.00,,,0.00,WUHU216DAVISVP2,2013-07-02 21:10:00,
2013-07-02 17:11:00,73.8,67.2,29.17,NE,35,6.0,11.0,80,0.00,,,0.00,WUHU216DAVISVP2,2013-07-02 21:11:00,
2013-07-02 17:12:00,73.8,67.2,29.17,NE,35,9.0,11.0,80,0.00,,,0.00,WUHU216DAVISVP2,2013-07-02 21:12:00,
2013-07-02 17:15:00,73.9,67.3,29.16,NNE,23,6.0,11.0,80,0.00,,,0.00,WUHU216DAVISVP2,2013-07-02 21:15:00,
2013-07-02 17:16:00,73.9,67.0,29.17,NE,35,4.0,11.0,79,0.00,,,0.00,WUHU216DAVISVP2,2013-07-02 21:16:00,
2013-07-02 17:17:00,74.1,67.3,29.16,NE,43,8.0,11.0,79,0.00,,,0.00,WUHU216DAVISVP2,2013-07-02 21:17:00,
2013-07-02 17:20:00,74.2,67.4,29.16,NE,43,7.0,11.0,79,0.00,,,0.00,WUHU216DAVISVP2,2013-07-02 21:20:00,
2013-07-02 17:21:00,74.3,67.5,29.16,NNE,29,6.0,11.0,79,0.00,,,0.00,WUHU216DAVISVP2,2013-07-02 21:21:00,
2013-07-02 17:23:00,74.2,67.4,29.17,ENE,62,9.0,11.0,79,0.00,,,0.00,WUHU216DAVISVP2,2013-07-02 21:23:00,
2013-07-02 17:25:00,74.3,67.1,29.17,NE,48,4.0,11.0,78,0.00,,,0.00,WUHU216DAVISVP2,2013-07-02 21:25:00,
2013-07-02 17:26:00,74.3,67.1,29.17,ENE,61,5.0,11.0,78,0.00,,,0.00,WUHU216DAVISVP2,2013-07-02 21:26:00,
2013-07-02 17:27:00,74.4,67.2,29.17,ENE,68,5.0,10.0,78,0.00,,,0.00,WUHU216DAVISVP2,2013-07-02 21:27:00,
2013-07-02 17:29:00,74.6,67.3,29.16,NE,43,6.0,10.0,78,0.00,,,0.00,WUHU216DAVISVP2,2013-07-02 21:29:00,
2013-07-02 17:31:00,74.7,67.4,29.16,NE,52,2.0,10.0,78,0.00,,,0.00,WUHU216DAVISVP2,2013-07-02 21:31:00,
2013-07-02 17:32:00,74.7,67.5,29.16,NE,42,5.0,10.0,78,0.00,,,0.00,WUHU216DAVISVP2,2013-07-02 21:32:00,
2013-07-02 17:34:00,74.5,67.7,29.16,ENE,59,6.0,10.0,79,0.00,,,0.00,WUHU216DAVISVP2,2013-07-02 21:34:00,
2013-07-02 17:36:00,74.4,67.6,29.16,ENE,69,7.0,11.0,79,0.00,,,0.00,WUHU216DAVISVP2,2013-07-02 21:36:00,
2013-07-02 17:37:00,74.3,67.5,29.16,ENE,60,8.0,11.0,79,0.00,,,0.00,WUHU216DAVISVP2,2013-07-02 21:37:00,
2013-07-02 17:40:00,74.2,67.4,29.16,NE,47,7.0,11.0,79,0.00,,,0.00,WUHU216DAVISVP2,2013-07-02 21:40:00,
2013-07-02 17:41:00,74.2,67.4,29.16,ENE,59,7.0,11.0,79,0.00,,,0.00,WUHU216DAVISVP2,2013-07-02 21:41:00,
2013-07-02 17:42:00,74.1,66.9,29.16,ENE,68,5.0,11.0,78,0.00,,,0.00,WUHU216DAVISVP2,2013-07-02 21:42:00,
2013-07-02 17:45:00,74.1,66.9,29.16,NE,55,5.0,11.0,78,0.00,,,0.00,WUHU216DAVISVP2,2013-07-02 21:45:00,
2013-07-02 17:46:00,74.2,67.4,29.16,NE,56,4.0,11.0,79,0.00,,,0.00,WUHU216DAVISVP2,2013-07-02 21:46:00,
2013-07-02 17:47:00,74.2,67.0,29.16,NE,56,1.0,11.0,78,0.00,,,0.00,WUHU216DAVISVP2,2013-07-02 21:47:00,
2013-07-02 17:48:00,74.2,67.0,29.16,NE,54,6.0,11.0,78,0.00,,,0.00,WUHU216DAVISVP2,2013-07-02 21:48:00,
2013-07-02 17:50:00,74.4,67.6,29.16,NE,48,3.0,11.0,79,0.00,,,0.00,WUHU216DAVISVP2,2013-07-02 21:50:00,
2013-07-02 17:51:00,74.4,67.6,29.16,NE,48,5.0,11.0,79,0.00,,,0.00,WUHU216DAVISVP2,2013-07-02 21:51:00,
2013-07-02 17:52:00,74.4,67.6,29.16,NNE,23,7.0,11.0,79,0.00,,,0.00,WUHU216DAVISVP2,2013-07-02 21:52:00,
2013-07-02 17:53:00,74.3,67.5,29.16,NE,37,4.0,11.0,79,0.00,,,0.00,WUHU216DAVISVP2,2013-07-02 21:53:00,
2013-07-02 17:55:00,74.0,66.8,29.16,NNE,23,7.0,13.0,78,0.00,,,0.00,WUHU216DAVISVP2,2013-07-02 21:55:00,
2013-07-02 17:57:00,73.9,67.1,29.16,ENE,57,8.0,13.0,79,0.00,,,0.00,WUHU216DAVISVP2,2013-07-02 21:57:00,
2013-07-02 17:58:00,73.8,67.3,29.16,NE,56,10.0,13.0,80,0.00,,,0.00,WUHU216DAVISVP2,2013-07-02 21:58:00,
2013-07-02 18:00:00,73.9,67.3,29.16,East,83,4.0,13.0,80,0.00,,,0.00,WUHU216DAVISVP2,2013-07-02 22:00:00,
2013-07-02 18:02:00,74.1,67.2,29.16,NE,46,4.0,13.0,79,0.00,,,0.00,WUHU216DAVISVP2,2013-07-02 22:02:00,
2013-07-02 18:03:00,74.2,67.3,29.16,NE,41,6.0,13.0,79,0.00,,,0.00,WUHU216DAVISVP2,2013-07-02 22:03:00,
2013-07-02 18:05:00,74.0,67.1,29.16,NE,41,7.0,13.0,79,0.00,,,0.00,WUHU216DAVISVP2,2013-07-02 22:05:00,
2013-07-02 18:07:00,73.9,67.3,29.16,NNE,27,8.0,13.0,80,0.00,,,0.00,WUHU216DAVISVP2,2013-07-02 22:07:00,
2013-07-02 18:08:00,73.8,67.6,29.16,NE,35,7.0,13.0,81,0.00,,,0.00,WUHU216DAVISVP2,2013-07-02 22:08:00,
2013-07-02 18:09:00,73.8,67.6,29.16,ENE,62,7.0,13.0,81,0.00,,,0.00,WUHU216DAVISVP2,2013-07-02 22:09:00,
2013-07-02 18:11:00,73.8,67.6,29.16,NE,45,6.0,13.0,81,0.00,,,0.00,WUHU216DAVISVP2,2013-07-02 22:11:00,
2013-07-02 18:12:00,73.8,67.6,29.15,NE,50,6.0,13.0,81,0.00,,,0.00,WUHU216DAVISVP2,2013-07-02 22:12:00,
2013-07-02 18:13:00,73.9,67.0,29.15,NNE,21,7.0,13.0,79,0.00,,,0.00,WUHU216DAVISVP2,2013-07-02 22:13:00,
2013-07-02 18:14:00,73.9,67.0,29.15,NNE,31,5.0,13.0,79,0.00,,,0.00,WUHU216DAVISVP2,2013-07-02 22:14:00,
2013-07-02 18:16:00,73.7,67.1,29.15,NNE,17,8.0,13.0,80,0.00,,,0.00,WUHU216DAVISVP2,2013-07-02 22:16:00,
2013-07-02 18:17:00,73.7,67.1,29.15,NE,35,8.0,13.0,80,0.00,,,0.00,WUHU216DAVISVP2,2013-07-02 22:17:00,
2013-07-02 18:18:00,73.5,66.9,29.15,NE,35,8.0,13.0,80,0.00,,,0.00,WUHU216DAVISVP2,2013-07-02 22:18:00,
2013-07-02 18:19:00,73.5,66.9,29.15,NNE,31,6.0,13.0,80,0.00,,,0.00,WUHU216DAVISVP2,2013-07-02 22:19:00,
2013-07-02 18:21:00,73.1,66.6,29.15,NNE,18,7.0,13.0,80,0.00,,,0.00,WUHU216DAVISVP2,2013-07-02 22:21:00,
2013-07-02 18:22:00,73.0,66.8,29.15,NNW,329,7.0,13.0,81,0.00,,,0.00,WUHU216DAVISVP2,2013-07-02 22:22:00,
2013-07-02 18:23:00,72.9,66.7,29.15,North,8,6.0,13.0,81,0.00,,,0.00,WUHU216DAVISVP2,2013-07-02 22:23:00,
2013-07-02 18:24:00,72.8,66.6,29.15,North,350,7.0,10.0,81,0.00,,,0.00,WUHU216DAVISVP2,2013-07-02 22:24:00,
2013-07-02 18:26:00,72.6,66.5,29.15,North,354,7.0,10.0,81,0.00,,,0.00,WUHU216DAVISVP2,2013-07-02 22:26:00,
2013-07-02 18:27:00,72.6,66.5,29.16,NNE,12,6.0,10.0,81,0.00,,,0.00,WUHU216DAVISVP2,2013-07-02 22:27:00,
2013-07-02 18:28:00,72.6,66.5,29.16,NNE,23,5.0,10.0,81,0.00,,,0.00,WUHU216DAVISVP2,2013-07-02 22:28:00,
2013-07-02 18:29:00,72.5,66.4,29.16,North,4,8.0,10.0,81,0.00,,,0.00,WUHU216DAVISVP2,2013-07-02 22:29:00,
2013-07-02 18:30:00,72.5,66.8,29.16,NNE,33,9.0,12.0,82,0.00,,,0.00,WUHU216DAVISVP2,2013-07-02 22:30:00,
2013-07-02 18:32:00,72.6,66.9,29.16,NE,35,6.0,12.0,82,0.00,,,0.00,WUHU216DAVISVP2,2013-07-02 22:32:00,
2013-07-02 18:33:00,72.7,67.0,29.15,NNE,18,9.0,12.0,82,0.00,,,0.00,WUHU216DAVISVP2,2013-07-02 22:33:00,
2013-07-02 18:34:00,72.7,66.9,29.15,NE,40,9.0,12.0,82,0.00,,,0.00,WUHU216DAVISVP2,2013-07-02 22:34:00,
2013-07-02 18:35:00,72.7,66.5,29.15,NNE,30,7.0,12.0,81,0.00,,,0.00,WUHU216DAVISVP2,2013-07-02 22:35:00,
2013-07-02 18:37:00,72.8,67.0,29.15,NNE,15,7.0,12.0,82,0.00,,,0.00,WUHU216DAVISVP2,2013-07-02 22:37:00,
2013-07-02 18:38:00,72.8,66.6,29.15,NE,47,8.0,12.0,81,0.00,,,0.00,WUHU216DAVISVP2,2013-07-02 22:38:00,
2013-07-02 18:39:00,72.9,67.1,29.15,NNE,29,8.0,12.0,82,0.00,,,0.00,WUHU216DAVISVP2,2013-07-02 22:39:00,
2013-07-02 18:40:00,72.9,66.8,29.15,NE,37,5.0,12.0,81,0.00,,,0.00,WUHU216DAVISVP2,2013-07-02 22:40:00,
2013-07-02 18:42:00,73.0,66.9,29.15,NE,52,5.0,12.0,81,0.00,,,0.00,WUHU216DAVISVP2,2013-07-02 22:42:00,
2013-07-02 18:43:00,73.1,67.0,29.15,NE,45,7.0,12.0,81,0.00,,,0.00,WUHU216DAVISVP2,2013-07-02 22:43:00,
2013-07-02 18:44:00,73.1,67.0,29.15,NNE,33,5.0,12.0,81,0.00,,,0.00,WUHU216DAVISVP2,2013-07-02 22:44:00,
2013-07-02 18:45:00,73.3,67.2,29.15,NNE,21,8.0,12.0,81,0.00,,,0.00,WUHU216DAVISVP2,2013-07-02 22:45:00,
2013-07-02 18:47:00,73.3,67.1,29.15,NE,35,9.0,12.0,81,0.00,,,0.00,WUHU216DAVISVP2,2013-07-02 22:47:00,
2013-07-02 18:48:00,73.3,67.1,29.15,NNE,32,10.0,12.0,81,0.00,,,0.00,WUHU216DAVISVP2,2013-07-02 22:48:00,
2013-07-02 18:49:00,73.2,67.0,29.15,NNE,31,11.0,12.0,81,0.00,,,0.00,WUHU216DAVISVP2,2013-07-02 22:49:00,
2013-07-02 18:50:00,73.1,66.9,29.15,NNE,19,5.0,12.0,81,0.00,,,0.00,WUHU216DAVISVP2,2013-07-02 22:50:00,
2013-07-02 18:53:00,73.1,66.9,29.15,NNE,33,8.0,12.0,81,0.00,,,0.00,WUHU216DAVISVP2,2013-07-02 22:53:00,
2013-07-02 18:54:00,73.1,66.9,29.15,NNE,33,8.0,12.0,81,0.00,,,0.00,WUHU216DAVISVP2,2013-07-02 22:54:00,
2013-07-02 18:55:00,73.1,67.3,29.15,North,359,8.0,12.0,82,0.00,,,0.00,WUHU216DAVISVP2,2013-07-02 22:55:00,
2013-07-02 18:58:00,73.1,67.0,29.15,NNE,16,8.0,11.0,81,0.00,,,0.00,WUHU216DAVISVP2,2013-07-02 22:58:00,
2013-07-02 18:59:00,73.1,67.0,29.15,NNE,22,9.0,11.0,81,0.00,,,0.00,WUHU216DAVISVP2,2013-07-02 22:59:00,
2013-07-02 19:00:00,73.1,67.0,29.15,North,4,8.0,11.0,81,0.00,,,0.00,WUHU216DAVISVP2,2013-07-02 23:00:00,
2013-07-02 19:01:00,73.0,66.6,29.15,NNE,26,8.0,11.0,80,0.00,,,0.00,WUHU216DAVISVP2,2013-07-02 23:01:00,
2013-07-02 19:03:00,73.1,67.0,29.15,NNE,31,4.0,11.0,81,0.00,,,0.00,WUHU216DAVISVP2,2013-07-02 23:03:00,
2013-07-02 19:04:00,73.2,67.1,29.15,NE,38,5.0,11.0,81,0.00,,,0.00,WUHU216DAVISVP2,2013-07-02 23:04:00,
2013-07-02 19:05:00,73.3,67.2,29.15,NE,45,5.0,11.0,81,0.00,,,0.00,WUHU216DAVISVP2,2013-07-02 23:05:00,
2013-07-02 19:06:00,73.3,67.2,29.15,ENE,62,5.0,11.0,81,0.00,,,0.00,WUHU216DAVISVP2,2013-07-02 23:06:00,
2013-07-02 19:09:00,73.5,67.0,29.15,North,359,9.0,11.0,80,0.00,,,0.00,WUHU216DAVISVP2,2013-07-02 23:09:00,
2013-07-02 19:10:00,73.5,67.0,29.15,NNE,31,9.0,11.0,80,0.00,,,0.00,WUHU216DAVISVP2,2013-07-02 23:10:00,
2013-07-02 19:11:00,73.5,67.0,29.16,NE,35,6.0,11.0,80,0.00,,,0.00,WUHU216DAVISVP2,2013-07-02 23:11:00,
2013-07-02 19:14:00,73.5,67.4,29.16,NNE,31,4.0,11.0,81,0.00,,,0.00,WUHU216DAVISVP2,2013-07-02 23:14:00,
2013-07-02 19:15:00,73.5,67.4,29.16,NNE,16,9.0,11.0,81,0.00,,,0.00,WUHU216DAVISVP2,2013-07-02 23:15:00,
2013-07-02 19:16:00,73.6,67.5,29.16,NNE,25,9.0,11.0,81,0.00,,,0.00,WUHU216DAVISVP2,2013-07-02 23:16:00,
2013-07-02 19:19:00,73.7,67.6,29.16,NNE,18,8.0,10.0,81,0.00,,,0.00,WUHU216DAVISVP2,2013-07-02 23:19:00,
2013-07-02 19:20:00,73.7,67.6,29.16,North,359,10.0,11.0,81,0.00,,,0.00,WUHU216DAVISVP2,2013-07-02 23:20:00,
2013-07-02 19:21:00,73.7,67.2,29.16,NE,40,9.0,12.0,80,0.00,,,0.00,WUHU216DAVISVP2,2013-07-02 23:21:00,
2013-07-02 19:22:00,73.8,67.7,29.16,NE,43,5.0,12.0,81,0.00,,,0.00,WUHU216DAVISVP2,2013-07-02 23:22:00,
2013-07-02 19:24:00,73.9,67.7,29.16,NE,56,5.0,12.0,81,0.00,,,0.00,WUHU216DAVISVP2,2013-07-02 23:24:00,
2013-07-02 19:25:00,74.1,67.9,29.17,NNE,27,5.0,12.0,81,0.00,,,0.00,WUHU216DAVISVP2,2013-07-02 23:25:00,
2013-07-02 19:26:00,74.1,67.9,29.17,NNE,33,7.0,12.0,81,0.00,,,0.00,WUHU216DAVISVP2,2013-07-02 23:26:00,
2013-07-02 19:27:00,74.1,67.5,29.17,NNE,27,7.0,12.0,80,0.00,,,0.00,WUHU216DAVISVP2,2013-07-02 23:27:00,
2013-07-02 19:29:00,74.0,67.4,29.17,NNE,25,8.0,12.0,80,0.00,,,0.00,WUHU216DAVISVP2,2013-07-02 23:29:00,
2013-07-02 19:30:00,74.0,67.4,29.16,NNE,29,5.0,12.0,80,0.00,,,0.00,WUHU216DAVISVP2,2013-07-02 23:30:00,
2013-07-02 19:31:00,73.9,67.3,29.16,NE,43,8.0,12.0,80,0.00,,,0.00,WUHU216DAVISVP2,2013-07-02 23:31:00,
2013-07-02 19:32:00,73.9,67.7,29.16,NE,34,8.0,12.0,81,0.00,,,0.00,WUHU216DAVISVP2,2013-07-02 23:32:00,
2013-07-02 19:34:00,73.9,67.7,29.16,NNE,28,7.0,12.0,81,0.00,,,0.00,WUHU216DAVISVP2,2013-07-02 23:34:00,
2013-07-02 19:35:00,73.9,67.7,29.16,NE,45,4.0,12.0,81,0.00,,,0.00,WUHU216DAVISVP2,2013-07-02 23:35:00,
2013-07-02 19:36:00,73.9,67.7,29.17,NNE,13,8.0,12.0,81,0.00,,,0.00,WUHU216DAVISVP2,2013-07-02 23:36:00,
2013-07-02 19:38:00,73.8,67.6,29.17,North,359,5.0,12.0,81,0.00,,,0.00,WUHU216DAVISVP2,2013-07-02 23:38:00,
2013-07-02 19:39:00,73.7,67.5,29.17,North,4,8.0,12.0,81,0.00,,,0.00,WUHU216DAVISVP2,2013-07-02 23:39:00,
2013-07-02 19:40:00,73.7,67.5,29.16,North,4,8.0,10.0,81,0.00,,,0.00,WUHU216DAVISVP2,2013-07-02 23:40:00,
2013-07-02 19:41:00,73.5,67.3,29.16,NE,48,7.0,9.0,81,0.00,,,0.00,WUHU216DAVISVP2,2013-07-02 23:41:00,
2013-07-02 19:43:00,73.5,67.3,29.16,NE,52,8.0,10.0,81,0.00,,,0.00,WUHU216DAVISVP2,2013-07-02 23:43:00,
2013-07-02 19:45:00,73.4,67.3,29.17,NNE,28,10.0,10.0,81,0.00,,,0.00,WUHU216DAVISVP2,2013-07-02 23:45:00,
2013-07-02 19:46:00,73.3,67.2,29.17,NE,35,7.0,10.0,81,0.00,,,0.00,WUHU216DAVISVP2,2013-07-02 23:46:00,
2013-07-02 19:48:00,73.3,67.5,29.17,NE,43,6.0,10.0,82,0.00,,,0.00,WUHU216DAVISVP2,2013-07-02 23:48:00,
2013-07-02 19:50:00,73.3,67.2,29.17,NNE,27,6.0,10.0,81,0.00,,,0.00,WUHU216DAVISVP2,2013-07-02 23:50:00,
2013-07-02 19:51:00,73.3,67.2,29.17,NE,40,8.0,10.0,81,0.00,,,0.00,WUHU216DAVISVP2,2013-07-02 23:51:00,
2013-07-02 19:53:00,73.2,67.4,29.17,NNE,13,6.0,10.0,82,0.00,,,0.00,WUHU216DAVISVP2,2013-07-02 23:53:00,
2013-07-02 19:54:00,73.2,67.4,29.17,North,354,5.0,10.0,82,0.00,,,0.00,WUHU216DAVISVP2,2013-07-02 23:54:00,
2013-07-02 19:55:00,73.1,67.3,29.17,North,359,6.0,10.0,82,0.00,,,0.00,WUHU216DAVISVP2,2013-07-02 23:55:00,
2013-07-02 19:57:00,73.0,67.2,29.17,North,4,8.0,10.0,82,0.00,,,0.00,WUHU216DAVISVP2,2013-07-02 23:57:00,
2013-07-02 19:59:00,72.9,67.1,29.17,North,354,7.0,10.0,82,0.00,,,0.00,WUHU216DAVISVP2,2013-07-02 23:59:00,
2013-07-02 20:00:00,72.8,67.1,29.17,NNE,14,7.0,10.0,82,0.00,,,0.00,WUHU216DAVISVP2,2013-07-03 00:00:00,
2013-07-02 20:01:00,72.8,67.1,29.17,North,350,8.0,11.0,82,0.00,,,0.00,WUHU216DAVISVP2,2013-07-03 00:01:00,
2013-07-02 20:02:00,72.6,67.2,29.17,North,4,10.0,12.0,83,0.00,,,0.00,WUHU216DAVISVP2,2013-07-03 00:02:00,
2013-07-02 20:04:00,72.4,67.0,29.16,NNE,15,7.0,12.0,83,0.00,,,0.00,WUHU216DAVISVP2,2013-07-03 00:04:00,
2013-07-02 20:05:00,72.4,67.0,29.16,NNE,19,9.0,12.0,83,0.00,,,0.00,WUHU216DAVISVP2,2013-07-03 00:05:00,
2013-07-02 20:06:00,72.3,66.9,29.17,NNE,20,6.0,12.0,83,0.00,,,0.00,WUHU216DAVISVP2,2013-07-03 00:06:00,
2013-07-02 20:07:00,72.3,66.9,29.16,North,4,9.0,12.0,83,0.00,,,0.00,WUHU216DAVISVP2,2013-07-03 00:07:00,
2013-07-02 20:09:00,72.2,67.1,29.16,NE,46,7.0,12.0,84,0.00,,,0.00,WUHU216DAVISVP2,2013-07-03 00:09:00,
2013-07-02 20:10:00,72.2,67.1,29.16,NE,43,9.0,12.0,84,0.00,,,0.00,WUHU216DAVISVP2,2013-07-03 00:10:00,
2013-07-02 20:11:00,72.2,67.1,29.16,NNE,31,7.0,12.0,84,0.00,,,0.00,WUHU216DAVISVP2,2013-07-03 00:11:00,
2013-07-02 20:12:00,72.2,67.1,29.16,NE,48,7.0,12.0,84,0.00,,,0.00,WUHU216DAVISVP2,2013-07-03 00:12:00,
2013-07-02 20:14:00,72.3,67.2,29.16,NE,49,5.0,12.0,84,0.00,,,0.00,WUHU216DAVISVP2,2013-07-03 00:14:00,
2013-07-02 20:16:00,72.3,67.2,29.16,ENE,68,8.0,12.0,84,0.00,,,0.00,WUHU216DAVISVP2,2013-07-03 00:16:00,
2013-07-02 20:17:00,72.2,67.1,29.16,NE,55,8.0,12.0,84,0.00,,,0.00,WUHU216DAVISVP2,2013-07-03 00:17:00,
2013-07-02 20:20:00,72.2,67.1,29.16,ENE,62,6.0,12.0,84,0.00,,,0.00,WUHU216DAVISVP2,2013-07-03 00:20:00,
2013-07-02 20:21:00,72.2,67.1,29.15,ENE,76,5.0,11.0,84,0.00,,,0.00,WUHU216DAVISVP2,2013-07-03 00:21:00,
2013-07-02 20:22:00,72.2,67.4,29.15,East,96,6.0,11.0,85,0.00,,,0.00,WUHU216DAVISVP2,2013-07-03 00:22:00,
2013-07-02 20:23:00,72.2,67.1,29.15,ENE,72,7.0,11.0,84,0.00,,,0.00,WUHU216DAVISVP2,2013-07-03 00:23:00,
2013-07-02 20:24:00,72.2,67.1,29.16,East,95,4.0,11.0,84,0.00,,,0.00,WUHU216DAVISVP2,2013-07-03 00:24:00,
2013-07-02 20:25:00,72.1,67.3,29.16,ENE,64,6.0,11.0,85,0.00,,,0.00,WUHU216DAVISVP2,2013-07-03 00:25:00,
2013-07-02 20:27:00,72.1,67.4,29.16,ENE,64,7.0,11.0,85,0.00,,,0.00,WUHU216DAVISVP2,2013-07-03 00:27:00,
2013-07-02 20:28:00,72.1,67.4,29.16,ENE,68,4.0,11.0,85,0.00,,,0.00,WUHU216DAVISVP2,2013-07-03 00:28:00,
2013-07-02 20:30:00,72.0,67.3,29.16,ENE,73,6.0,11.0,85,0.00,,,0.00,WUHU216DAVISVP2,2013-07-03 00:30:00,
2013-07-02 20:32:00,71.9,67.2,29.16,ESE,106,4.0,11.0,85,0.00,,,0.00,WUHU216DAVISVP2,2013-07-03 00:32:00,
2013-07-02 20:33:00,71.9,67.2,29.16,East,100,5.0,11.0,85,0.00,,,0.00,WUHU216DAVISVP2,2013-07-03 00:33:00,
2013-07-02 20:35:00,71.7,67.3,29.16,NE,54,6.0,11.0,86,0.00,,,0.00,WUHU216DAVISVP2,2013-07-03 00:35:00,
2013-07-02 20:37:00,71.6,67.2,29.16,ENE,72,2.0,11.0,86,0.00,,,0.00,WUHU216DAVISVP2,2013-07-03 00:37:00,
2013-07-02 20:38:00,71.6,67.2,29.16,ENE,72,5.0,11.0,86,0.00,,,0.00,WUHU216DAVISVP2,2013-07-03 00:38:00,
2013-07-02 20:40:00,71.5,67.4,29.16,ENE,66,5.0,10.0,87,0.00,,,0.00,WUHU216DAVISVP2,2013-07-03 00:40:00,
2013-07-02 20:42:00,71.3,67.2,29.16,SE,133,7.0,10.0,87,0.00,,,0.00,WUHU216DAVISVP2,2013-07-03 00:42:00,
2013-07-02 20:43:00,71.3,67.2,29.16,ESE,110,4.0,10.0,87,0.00,,,0.00,WUHU216DAVISVP2,2013-07-03 00:43:00,
2013-07-02 20:46:00,71.1,67.0,29.16,ESE,102,1.0,10.0,87,0.00,,,0.00,WUHU216DAVISVP2,2013-07-03 00:46:00,
2013-07-02 20:47:00,71.0,67.3,29.16,East,97,4.0,10.0,88,0.00,,,0.00,WUHU216DAVISVP2,2013-07-03 00:47:00,
2013-07-02 20:48:00,71.0,67.3,29.16,East,100,1.0,10.0,88,0.00,,,0.00,WUHU216DAVISVP2,2013-07-03 00:48:00,
2013-07-02 20:51:00,70.8,67.1,29.16,East,94,2.0,10.0,88,0.00,,,0.00,WUHU216DAVISVP2,2013-07-03 00:51:00,
2013-07-02 20:52:00,70.8,67.1,29.17,East,100,1.0,10.0,88,0.00,,,0.00,WUHU216DAVISVP2,2013-07-03 00:52:00,
2013-07-02 20:53:00,70.8,67.1,29.17,East,101,0.0,10.0,88,0.00,,,0.00,WUHU216DAVISVP2,2013-07-03 00:53:00,
2013-07-02 20:54:00,70.7,67.0,29.17,East,79,2.0,10.0,88,0.00,,,0.00,WUHU216DAVISVP2,2013-07-03 00:54:00,
2013-07-02 20:56:00,70.6,66.9,29.17,East,88,6.0,9.0,88,0.00,,,0.00,WUHU216DAVISVP2,2013-07-03 00:56:00,
2013-07-02 20:58:00,70.6,66.9,29.17,East,82,5.0,9.0,88,0.00,,,0.00,WUHU216DAVISVP2,2013-07-03 00:58:00,
2013-07-02 20:59:00,70.6,66.9,29.17,ENE,72,6.0,9.0,88,0.00,,,0.00,WUHU216DAVISVP2,2013-07-03 00:59:00,
2013-07-02 21:00:00,70.5,66.8,29.17,ENE,68,7.0,9.0,88,0.00,,,0.00,WUHU216DAVISVP2,2013-07-03 01:00:00,
2013-07-02 21:01:00,70.5,66.8,29.17,NE,54,4.0,11.0,88,0.00,,,0.00,WUHU216DAVISVP2,2013-07-03 01:01:00,
2013-07-02 21:03:00,70.5,66.8,29.17,East,89,1.0,11.0,88,0.00,,,0.00,WUHU216DAVISVP2,2013-07-03 01:03:00,
2013-07-02 21:04:00,70.4,66.7,29.17,ENE,60,2.0,11.0,88,0.00,,,0.00,WUHU216DAVISVP2,2013-07-03 01:04:00,
2013-07-02 21:05:00,70.4,66.7,29.17,East,79,2.0,11.0,88,0.00,,,0.00,WUHU216DAVISVP2,2013-07-03 01:05:00,
2013-07-02 21:06:00,70.4,66.7,29.17,ENE,70,4.0,11.0,88,0.00,,,0.00,WUHU216DAVISVP2,2013-07-03 01:06:00,
2013-07-02 21:08:00,70.4,66.7,29.17,East,95,1.0,11.0,88,0.00,,,0.00,WUHU216DAVISVP2,2013-07-03 01:08:00,
2013-07-02 21:09:00,70.4,66.7,29.17,ENE,73,5.0,11.0,88,0.00,,,0.00,WUHU216DAVISVP2,2013-07-03 01:09:00,
2013-07-02 21:11:00,70.4,66.7,29.17,East,81,3.0,11.0,88,0.00,,,0.00,WUHU216DAVISVP2,2013-07-03 01:11:00,
2013-07-02 21:12:00,70.4,66.7,29.17,ENE,70,5.0,11.0,88,0.00,,,0.00,WUHU216DAVISVP2,2013-07-03 01:12:00,
2013-07-02 21:13:00,70.3,66.6,29.17,ENE,74,4.0,11.0,88,0.00,,,0.00,WUHU216DAVISVP2,2013-07-03 01:13:00,
2013-07-02 21:14:00,70.3,66.6,29.17,NE,52,3.0,11.0,88,0.00,,,0.00,WUHU216DAVISVP2,2013-07-03 01:14:00,
2013-07-02 21:15:00,70.3,66.6,29.17,ENE,68,7.0,11.0,88,0.00,,,0.00,WUHU216DAVISVP2,2013-07-03 01:15:00,
2013-07-02 21:16:00,70.2,66.5,29.17,ENE,70,6.0,11.0,88,0.00,,,0.00,WUHU216DAVISVP2,2013-07-03 01:16:00,
2013-07-02 21:17:00,70.2,66.5,29.17,ENE,59,5.0,11.0,88,0.00,,,0.00,WUHU216DAVISVP2,2013-07-03 01:17:00,
2013-07-02 21:19:00,70.1,66.4,29.18,ENE,64,2.0,11.0,88,0.00,,,0.00,WUHU216DAVISVP2,2013-07-03 01:19:00,
2013-07-02 21:20:00,70.1,66.4,29.18,ENE,64,2.0,10.0,88,0.00,,,0.00,WUHU216DAVISVP2,2013-07-03 01:20:00,
2013-07-02 21:21:00,70.0,66.6,29.18,ENE,64,4.0,10.0,89,0.00,,,0.00,WUHU216DAVISVP2,2013-07-03 01:21:00,
2013-07-02 21:22:00,70.1,66.7,29.18,ENE,63,2.0,10.0,89,0.00,,,0.00,WUHU216DAVISVP2,2013-07-03 01:22:00,
2013-07-02 21:24:00,70.0,66.6,29.18,ENE,64,4.0,10.0,89,0.00,,,0.00,WUHU216DAVISVP2,2013-07-03 01:24:00,
2013-07-02 21:25:00,69.9,66.5,29.18,ENE,64,0.0,10.0,89,0.00,,,0.00,WUHU216DAVISVP2,2013-07-03 01:25:00,
2013-07-02 21:26:00,69.9,66.5,29.17,ENE,64,4.0,10.0,89,0.00,,,0.00,WUHU216DAVISVP2,2013-07-03 01:26:00,
2013-07-02 21:27:00,69.9,66.5,29.17,ENE,76,2.0,10.0,89,0.00,,,0.00,WUHU216DAVISVP2,2013-07-03 01:27:00,
2013-07-02 21:29:00,69.8,66.4,29.17,ENE,69,5.0,10.0,89,0.00,,,0.00,WUHU216DAVISVP2,2013-07-03 01:29:00,
2013-07-02 21:30:00,69.8,66.4,29.17,ENE,69,5.0,10.0,89,0.00,,,0.00,WUHU216DAVISVP2,2013-07-03 01:30:00,
2013-07-02 21:31:00,69.7,66.3,29.17,ENE,75,5.0,10.0,89,0.00,,,0.00,WUHU216DAVISVP2,2013-07-03 01:31:00,
2013-07-02 21:32:00,69.7,66.3,29.17,East,80,4.0,10.0,89,0.00,,,0.00,WUHU216DAVISVP2,2013-07-03 01:32:00,
2013-07-02 21:34:00,69.7,66.6,29.17,ENE,76,4.0,10.0,90,0.00,,,0.00,WUHU216DAVISVP2,2013-07-03 01:34:00,
2013-07-02 21:36:00,69.6,66.5,29.17,ENE,71,4.0,10.0,90,0.00,,,0.00,WUHU216DAVISVP2,2013-07-03 01:36:00,
2013-07-02 21:37:00,69.6,66.5,29.17,ENE,71,4.0,6.0,90,0.00,,,0.00,WUHU216DAVISVP2,2013-07-03 01:37:00,
2013-07-02 21:38:00,69.6,66.5,29.17,ENE,63,5.0,6.0,90,0.00,,,0.00,WUHU216DAVISVP2,2013-07-03 01:38:00,
2013-07-02 21:40:00,69.5,66.4,29.17,NE,49,5.0,8.0,90,0.00,,,0.00,WUHU216DAVISVP2,2013-07-03 01:40:00,
2013-07-02 21:41:00,69.5,66.4,29.17,NE,50,6.0,8.0,90,0.00,,,0.00,WUHU216DAVISVP2,2013-07-03 01:41:00,
2013-07-02 21:42:00,69.4,66.3,29.17,NE,50,4.0,8.0,90,0.00,,,0.00,WUHU216DAVISVP2,2013-07-03 01:42:00,
2013-07-02 21:43:00,69.4,66.3,29.17,NE,48,5.0,8.0,90,0.00,,,0.00,WUHU216DAVISVP2,2013-07-03 01:43:00,
2013-07-02 21:45:00,69.4,66.3,29.17,NE,47,5.0,8.0,90,0.00,,,0.00,WUHU216DAVISVP2,2013-07-03 01:45:00,
2013-07-02 21:48:00,69.3,66.5,29.18,NNE,16,4.0,8.0,91,0.00,,,0.00,WUHU216DAVISVP2,2013-07-03 01:48:00,
2013-07-02 21:49:00,69.2,66.4,29.18,NNE,24,4.0,8.0,91,0.00,,,0.00,WUHU216DAVISVP2,2013-07-03 01:49:00,
2013-07-02 21:51:00,69.1,66.3,29.18,NNE,18,4.0,8.0,91,0.00,,,0.00,WUHU216DAVISVP2,2013-07-03 01:51:00,
2013-07-02 21:53:00,69.1,66.3,29.18,NNE,18,5.0,8.0,91,0.00,,,0.00,WUHU216DAVISVP2,2013-07-03 01:53:00,
2013-07-02 21:55:00,69.0,66.2,29.18,NNE,18,5.0,8.0,91,0.00,,,0.00,WUHU216DAVISVP2,2013-07-03 01:55:00,
2013-07-02 21:56:00,68.9,66.2,29.18,NNE,18,6.0,7.0,91,0.00,,,0.00,WUHU216DAVISVP2,2013-07-03 01:56:00,
2013-07-02 21:58:00,68.8,66.4,29.18,NNE,18,5.0,7.0,92,0.00,,,0.00,WUHU216DAVISVP2,2013-07-03 01:58:00,
2013-07-02 22:00:00,68.8,66.4,29.18,NNE,18,5.0,7.0,92,0.00,,,0.00,WUHU216DAVISVP2,2013-07-03 02:00:00,
2013-07-02 22:01:00,68.8,66.4,29.18,NNE,18,5.0,7.0,92,0.00,,,0.00,WUHU216DAVISVP2,2013-07-03 02:01:00,
2013-07-02 22:02:00,68.8,66.4,29.17,NNE,16,6.0,9.0,92,0.00,,,0.00,WUHU216DAVISVP2,2013-07-03 02:02:00,
2013-07-02 22:04:00,68.7,66.3,29.17,North,8,6.0,9.0,92,0.00,,,0.00,WUHU216DAVISVP2,2013-07-03 02:04:00,
2013-07-02 22:05:00,68.6,66.5,29.18,North,8,5.0,9.0,93,0.00,,,0.00,WUHU216DAVISVP2,2013-07-03 02:05:00,
2013-07-02 22:07:00,68.5,66.4,29.18,North,8,5.0,9.0,93,0.00,,,0.00,WUHU216DAVISVP2,2013-07-03 02:07:00,
2013-07-02 22:08:00,68.5,66.4,29.18,North,8,5.0,9.0,93,0.00,,,0.00,WUHU216DAVISVP2,2013-07-03 02:08:00,
2013-07-02 22:10:00,68.5,66.4,29.18,NE,39,5.0,9.0,93,0.00,,,0.00,WUHU216DAVISVP2,2013-07-03 02:10:00,
2013-07-02 22:11:00,68.4,66.3,29.18,NE,39,5.0,9.0,93,0.00,,,0.00,WUHU216DAVISVP2,2013-07-03 02:11:00,
2013-07-02 22:12:00,68.4,66.3,29.18,ENE,73,6.0,9.0,93,0.00,,,0.00,WUHU216DAVISVP2,2013-07-03 02:12:00,
2013-07-02 22:13:00,68.4,66.3,29.18,East,97,2.0,9.0,93,0.00,,,0.00,WUHU216DAVISVP2,2013-07-03 02:13:00,
2013-07-02 22:16:00,68.3,66.2,29.19,ENE,70,6.0,9.0,93,0.00,,,0.00,WUHU216DAVISVP2,2013-07-03 02:16:00,
2013-07-02 22:18:00,68.2,66.1,29.19,ENE,60,2.0,9.0,93,0.00,,,0.00,WUHU216DAVISVP2,2013-07-03 02:18:00,
2013-07-02 22:22:00,68.1,66.0,29.20,NNE,14,5.0,8.0,93,0.00,,,0.00,WUHU216DAVISVP2,2013-07-03 02:22:00,
2013-07-02 22:24:00,68.1,66.0,29.19,NNE,14,5.0,8.0,93,0.00,,,0.00,WUHU216DAVISVP2,2013-07-03 02:24:00,
2013-07-02 22:27:00,67.9,65.8,29.20,NNE,14,7.0,8.0,93,0.00,,,0.00,WUHU216DAVISVP2,2013-07-03 02:27:00,
2013-07-02 22:29:00,67.9,65.8,29.20,NNE,17,7.0,8.0,93,0.00,,,0.00,WUHU216DAVISVP2,2013-07-03 02:29:00,
2013-07-02 22:32:00,67.9,65.8,29.20,NNE,12,5.0,8.0,93,0.00,,,0.00,WUHU216DAVISVP2,2013-07-03 02:32:00,
2013-07-02 22:33:00,67.9,65.8,29.20,NNE,12,5.0,8.0,93,0.00,,,0.00,WUHU216DAVISVP2,2013-07-03 02:33:00,
2013-07-02 22:35:00,67.8,66.0,29.20,North,11,8.0,8.0,94,0.00,,,0.00,WUHU216DAVISVP2,2013-07-03 02:35:00,
2013-07-02 22:38:00,67.8,66.0,29.19,NNE,29,7.0,8.0,94,0.00,,,0.00,WUHU216DAVISVP2,2013-07-03 02:38:00,
2013-07-02 22:40:00,67.8,66.0,29.19,NE,37,8.0,10.0,94,0.00,,,0.00,WUHU216DAVISVP2,2013-07-03 02:40:00,
2013-07-02 22:43:00,67.7,65.9,29.19,NE,48,7.0,10.0,94,0.00,,,0.00,WUHU216DAVISVP2,2013-07-03 02:43:00,
2013-07-02 22:45:00,67.7,65.9,29.20,NNE,29,5.0,10.0,94,0.00,,,0.00,WUHU216DAVISVP2,2013-07-03 02:45:00,
2013-07-02 22:46:00,67.7,65.9,29.20,NE,52,4.0,10.0,94,0.00,,,0.00,WUHU216DAVISVP2,2013-07-03 02:46:00,
2013-07-02 22:48:00,67.7,65.9,29.20,NE,52,2.0,10.0,94,0.00,,,0.00,WUHU216DAVISVP2,2013-07-03 02:48:00,
2013-07-02 22:50:00,67.7,65.9,29.20,NE,52,5.0,10.0,94,0.00,,,0.00,WUHU216DAVISVP2,2013-07-03 02:50:00,
2013-07-02 22:51:00,67.7,65.9,29.20,NE,51,1.0,10.0,94,0.00,,,0.00,WUHU216DAVISVP2,2013-07-03 02:51:00,
2013-07-02 22:55:00,67.7,65.9,29.20,NE,55,7.0,10.0,94,0.00,,,0.00,WUHU216DAVISVP2,2013-07-03 02:55:00,
2013-07-02 22:56:00,67.6,65.8,29.21,NE,52,3.0,10.0,94,0.00,,,0.00,WUHU216DAVISVP2,2013-07-03 02:56:00,
2013-07-02 22:58:00,67.6,65.8,29.21,NE,54,4.0,10.0,94,0.00,,,0.00,WUHU216DAVISVP2,2013-07-03 02:58:00,
2013-07-02 23:00:00,67.6,65.8,29.20,East,96,4.0,9.0,94,0.00,,,0.00,WUHU216DAVISVP2,2013-07-03 03:00:00,
2013-07-02 23:02:00,67.6,65.8,29.20,East,87,0.0,9.0,94,0.00,,,0.00,WUHU216DAVISVP2,2013-07-03 03:02:00,
2013-07-02 23:03:00,67.5,65.7,29.21,East,87,0.0,9.0,94,0.00,,,0.00,WUHU216DAVISVP2,2013-07-03 03:03:00,
2013-07-02 23:05:00,67.5,65.7,29.21,East,87,3.0,9.0,94,0.00,,,0.00,WUHU216DAVISVP2,2013-07-03 03:05:00,
2013-07-02 23:07:00,67.5,65.7,29.21,East,87,3.0,9.0,94,0.00,,,0.00,WUHU216DAVISVP2,2013-07-03 03:07:00,
2013-07-02 23:08:00,67.5,65.7,29.21,East,87,0.0,9.0,94,0.00,,,0.00,WUHU216DAVISVP2,2013-07-03 03:08:00,
2013-07-02 23:09:00,67.5,65.7,29.21,East,87,0.0,9.0,94,0.00,,,0.00,WUHU216DAVISVP2,2013-07-03 03:09:00,
2013-07-02 23:11:00,67.5,65.7,29.21,East,87,0.0,9.0,94,0.00,,,0.00,WUHU216DAVISVP2,2013-07-03 03:11:00,
2013-07-02 23:13:00,67.5,65.7,29.21,East,87,0.0,9.0,94,0.00,,,0.00,WUHU216DAVISVP2,2013-07-03 03:13:00,
2013-07-02 23:14:00,67.5,65.7,29.21,East,87,0.0,9.0,94,0.00,,,0.00,WUHU216DAVISVP2,2013-07-03 03:14:00,
2013-07-02 23:16:00,67.5,65.7,29.20,East,87,1.0,7.0,94,0.00,,,0.00,WUHU216DAVISVP2,2013-07-03 03:16:00,
2013-07-02 23:19:00,67.5,65.7,29.21,East,87,0.0,4.0,94,0.00,,,0.00,WUHU216DAVISVP2,2013-07-03 03:19:00,
2013-07-02 23:21:00,67.4,65.9,29.21,ENE,69,5.0,6.0,95,0.00,,,0.00,WUHU216DAVISVP2,2013-07-03 03:21:00,
2013-07-02 23:24:00,67.4,65.9,29.21,ENE,69,4.0,6.0,95,0.00,,,0.00,WUHU216DAVISVP2,2013-07-03 03:24:00,
2013-07-02 23:25:00,67.4,65.9,29.21,ENE,70,2.0,6.0,95,0.00,,,0.00,WUHU216DAVISVP2,2013-07-03 03:25:00,
2013-07-02 23:26:00,67.3,65.5,29.20,NE,56,2.0,9.0,94,0.00,,,0.00,WUHU216DAVISVP2,2013-07-03 03:26:00,
2013-07-02 23:29:00,67.3,65.5,29.20,ENE,61,7.0,9.0,94,0.00,,,0.00,WUHU216DAVISVP2,2013-07-03 03:29:00,
2013-07-02 23:30:00,67.2,65.4,29.20,NE,56,6.0,9.0,94,0.00,,,0.00,WUHU216DAVISVP2,2013-07-03 03:30:00,
2013-07-02 23:32:00,67.2,65.4,29.20,ENE,65,5.0,9.0,94,0.00,,,0.00,WUHU216DAVISVP2,2013-07-03 03:32:00,
2013-07-02 23:35:00,67.2,65.7,29.20,ENE,61,2.0,9.0,95,0.00,,,0.00,WUHU216DAVISVP2,2013-07-03 03:35:00,
2013-07-02 23:38:00,67.2,65.7,29.20,ENE,66,2.0,9.0,95,0.00,,,0.00,WUHU216DAVISVP2,2013-07-03 03:38:00,
2013-07-02 23:39:00,67.1,65.6,29.20,ENE,66,0.0,9.0,95,0.00,,,0.00,WUHU216DAVISVP2,2013-07-03 03:39:00,
2013-07-02 23:40:00,67.1,65.6,29.20,ENE,66,3.0,9.0,95,0.00,,,0.00,WUHU216DAVISVP2,2013-07-03 03:40:00,
2013-07-02 23:43:00,67.1,65.6,29.20,ENE,68,1.0,9.0,95,0.00,,,0.00,WUHU216DAVISVP2,2013-07-03 03:43:00,
2013-07-02 23:44:00,67.1,65.6,29.20,ENE,68,0.0,9.0,95,0.00,,,0.00,WUHU216DAVISVP2,2013-07-03 03:44:00,
2013-07-02 23:45:00,67.1,65.6,29.20,ENE,68,0.0,9.0,95,0.00,,,0.00,WUHU216DAVISVP2,2013-07-03 03:45:00,
2013-07-02 23:46:00,67.1,65.6,29.20,ENE,68,0.0,9.0,95,0.00,,,0.00,WUHU216DAVISVP2,2013-07-03 03:46:00,
2013-07-02 23:49:00,67.1,65.6,29.20,ESE,110,0.0,8.0,95,0.00,,,0.00,WUHU216DAVISVP2,2013-07-03 03:49:00,
2013-07-02 23:51:00,67.0,65.5,29.20,ESE,110,0.0,8.0,95,0.00,,,0.00,WUHU216DAVISVP2,2013-07-03 03:51:00,
2013-07-02 23:54:00,67.0,65.5,29.20,ESE,110,0.0,7.0,95,0.00,,,0.00,WUHU216DAVISVP2,2013-07-03 03:54:00,
2013-07-02 23:55:00,67.0,65.5,29.21,ESE,110,0.0,7.0,95,0.00,,,0.00,WUHU216DAVISVP2,2013-07-03 03:55:00,
2013-07-02 23:56:00,67.0,65.5,29.21,ESE,110,2.0,7.0,95,0.00,,,0.00,WUHU216DAVISVP2,2013-07-03 03:56:00,